Wetterdaten: Montag, 03.02.2020
Datum Zeit Temp. Aussen Temp. o. S. Temp +5cm Feuchte Auss Luftdruck Regen Sonnenschein Regendauer Solar Windben Empfang
03.02.2020 00:00 10,9 C 10,0 C 9,4 C 89 % 1010,0 hPa 0,0 l/m 0 min 0 min 0 W/m 16,1 km/h (3 Bft) 93,62 %
03.02.2020 00:02 10,9 C 10,0 C 9,4 C 89 % 1010,1 hPa 0,0 l/m 0 min 0 min 0 W/m 25,7 km/h (4 Bft) 94,87 %
03.02.2020 00:04 10,9 C 10,0 C 9,4 C 89 % 1010,0 hPa 0,0 l/m 0 min 0 min 0 W/m 25,7 km/h (4 Bft) 91,49 %
03.02.2020 00:08 10,9 C 10,0 C 9,4 C 89 % 1010,1 hPa 0,0 l/m 0 min 0 min 0 W/m 25,7 km/h (4 Bft) 93,62 %
03.02.2020 00:10 10,9 C 10,0 C 9,4 C 89 % 1010,0 hPa 0,0 l/m 0 min 0 min 0 W/m 19,3 km/h (3 Bft) 93,62 %
03.02.2020 00:12 10,9 C 10,0 C 9,4 C 89 % 1010,0 hPa 0,0 l/m 0 min 0 min 0 W/m 19,3 km/h (3 Bft) 93,62 %
03.02.2020 00:14 10,9 C 10,0 C 9,4 C 89 % 1010,0 hPa 0,0 l/m 0 min 0 min 0 W/m 16,1 km/h (3 Bft) 93,48 %
03.02.2020 00:16 10,9 C 10,0 C 9,4 C 89 % 1009,9 hPa 0,0 l/m 0 min 0 min 0 W/m 22,5 km/h (4 Bft) 91,49 %
03.02.2020 00:18 10,9 C 10,0 C 9,4 C 89 % 1009,8 hPa 0,0 l/m 0 min 0 min 0 W/m 19,3 km/h (3 Bft) 95,74 %
03.02.2020 00:20 10,9 C 10,0 C 9,4 C 89 % 1009,9 hPa 0,0 l/m 0 min 0 min 0 W/m 22,5 km/h (4 Bft) 95,74 %
03.02.2020 00:22 10,9 C 10,0 C 9,4 C 88 % 1009,8 hPa 0,0 l/m 0 min 0 min 0 W/m 19,3 km/h (3 Bft) 95,74 %
03.02.2020 00:24 10,9 C 10,0 C 9,4 C 88 % 1009,8 hPa 0,0 l/m 0 min 0 min 0 W/m 12,9 km/h (3 Bft) 95,74 %
03.02.2020 00:26 10,9 C 10,0 C 9,4 C 88 % 1009,9 hPa 0,0 l/m 0 min 0 min 0 W/m 12,9 km/h (3 Bft) 95,65 %
03.02.2020 00:28 10,9 C 10,0 C 9,4 C 88 % 1010,0 hPa 0,0 l/m 0 min 0 min 0 W/m 19,3 km/h (3 Bft) 95,74 %
03.02.2020 00:30 10,9 C 10,0 C 9,4 C 88 % 1010,0 hPa 0,0 l/m 0 min 0 min 0 W/m 32,2 km/h (5 Bft) 95,74 %
03.02.2020 00:32 10,9 C 10,0 C 9,4 C 88 % 1010,0 hPa 0,0 l/m 0 min 0 min 0 W/m 25,7 km/h (4 Bft) 95,74 %
03.02.2020 00:34 10,9 C 10,0 C 9,4 C 88 % 1010,0 hPa 0,0 l/m 0 min 0 min 0 W/m 22,5 km/h (4 Bft) 97,87 %
03.02.2020 00:36 10,9 C 10,0 C 9,4 C 88 % 1010,1 hPa 0,0 l/m 0 min 0 min 0 W/m 19,3 km/h (3 Bft) 95,74 %
03.02.2020 00:38 10,9 C 10,0 C 9,4 C 88 % 1010,0 hPa 0,0 l/m 0 min 0 min 0 W/m 19,3 km/h (3 Bft) 97,83 %
03.02.2020 00:40 10,9 C 10,0 C 9,4 C 87 % 1010,0 hPa 0,0 l/m 0 min 0 min 0 W/m 12,9 km/h (3 Bft) 97,87 %
03.02.2020 00:42 10,9 C 10,0 C 9,4 C 87 % 1010,0 hPa 0,0 l/m 0 min 0 min 0 W/m 25,7 km/h (4 Bft) 97,87 %
03.02.2020 00:44 10,8 C 10,0 C 9,4 C 87 % 1010,0 hPa 0,0 l/m 0 min 0 min 0 W/m 16,1 km/h (3 Bft) 97,87 %
03.02.2020 00:46 10,8 C 10,0 C 9,4 C 87 % 1010,2 hPa 0,0 l/m 0 min 0 min 0 W/m 19,3 km/h (3 Bft) 95,74 %
03.02.2020 00:48 10,8 C 10,0 C 9,4 C 87 % 1010,2 hPa 0,0 l/m 0 min 0 min 0 W/m 22,5 km/h (4 Bft) 97,83 %
03.02.2020 00:50 10,8 C 10,0 C 9,4 C 87 % 1010,2 hPa 0,0 l/m 0 min 0 min 0 W/m 16,1 km/h (3 Bft) 97,87 %
03.02.2020 00:52 10,9 C 10,0 C 9,4 C 86 % 1010,2 hPa 0,0 l/m 0 min 0 min 0 W/m 12,9 km/h (3 Bft) 97,87 %
03.02.2020 00:54 10,9 C 10,0 C 9,4 C 86 % 1010,4 hPa 0,0 l/m 0 min 0 min 0 W/m 22,5 km/h (4 Bft) 97,87 %
03.02.2020 00:56 10,9 C 10,0 C 9,4 C 86 % 1010,2 hPa 0,0 l/m 0 min 0 min 0 W/m 19,3 km/h (3 Bft) 97,87 %
03.02.2020 00:58 10,9 C 10,0 C 9,4 C 86 % 1010,2 hPa 0,0 l/m 0 min 0 min 0 W/m 19,3 km/h (3 Bft) 100,00 %
03.02.2020 01:00 10,9 C 10,0 C 9,4 C 86 % 1010,3 hPa 0,0 l/m 0 min 0 min 0 W/m 32,2 km/h (5 Bft) 100,00 %
03.02.2020 01:02 10,9 C 10,0 C 9,4 C 86 % 1010,2 hPa 0,0 l/m 0 min 0 min 0 W/m 25,7 km/h (4 Bft) 100,00 %
03.02.2020 01:04 10,9 C 10,0 C 9,4 C 85 % 1010,3 hPa 0,0 l/m 0 min 0 min 0 W/m 25,7 km/h (4 Bft) 100,00 %
03.02.2020 01:06 10,9 C 10,0 C 9,4 C 85 % 1010,4 hPa 0,0 l/m 0 min 0 min 0 W/m 19,3 km/h (3 Bft) 100,00 %
03.02.2020 01:08 10,9 C 10,0 C 9,4 C 85 % 1010,4 hPa 0,0 l/m 0 min 0 min 0 W/m 22,5 km/h (4 Bft) 100,00 %
03.02.2020 01:10 10,9 C 10,0 C 9,4 C 85 % 1010,2 hPa 0,0 l/m 0 min 0 min 0 W/m 16,1 km/h (3 Bft) 100,00 %
03.02.2020 01:12 10,9 C 10,0 C 9,4 C 85 % 1010,3 hPa 0,0 l/m 0 min 0 min 0 W/m 19,3 km/h (3 Bft) 100,00 %
03.02.2020 01:14 10,9 C 10,0 C 9,4 C 86 % 1010,2 hPa 0,0 l/m 0 min 0 min 0 W/m 22,5 km/h (4 Bft) 100,00 %
03.02.2020 01:16 10,8 C 10,0 C 9,4 C 86 % 1010,2 hPa 0,0 l/m 0 min 0 min 0 W/m 22,5 km/h (4 Bft) 100,00 %
03.02.2020 01:18 10,8 C 10,0 C 9,4 C 86 % 1010,4 hPa 0,0 l/m 0 min 0 min 0 W/m 22,5 km/h (4 Bft) 97,87 %
03.02.2020 01:20 10,8 C 10,0 C 9,4 C 86 % 1010,3 hPa 0,0 l/m 0 min 0 min 0 W/m 22,5 km/h (4 Bft) 100,00 %
03.02.2020 01:22 10,8 C 10,0 C 8,9 C 86 % 1010,2 hPa 0,0 l/m 0 min 0 min 0 W/m 16,1 km/h (3 Bft) 100,00 %
03.02.2020 01:24 10,8 C 10,0 C 8,9 C 86 % 1010,2 hPa 0,0 l/m 0 min 0 min 0 W/m 19,3 km/h (3 Bft) 100,00 %
03.02.2020 01:26 10,8 C 10,0 C 8,9 C 86 % 1010,3 hPa 0,0 l/m 0 min 0 min 0 W/m 25,7 km/h (4 Bft) 100,00 %
03.02.2020 01:28 10,7 C 10,0 C 9,4 C 86 % 1010,3 hPa 0,0 l/m 0 min 0 min 0 W/m 19,3 km/h (3 Bft) 100,00 %
03.02.2020 01:30 10,7 C 10,0 C 8,9 C 86 % 1010,3 hPa 0,0 l/m 0 min 0 min 0 W/m 16,1 km/h (3 Bft) 100,00 %
03.02.2020 01:32 10,7 C 10,0 C 9,4 C 86 % 1010,3 hPa 0,0 l/m 0 min 0 min 0 W/m 22,5 km/h (4 Bft) 100,00 %
03.02.2020 01:34 10,7 C 10,0 C 9,4 C 86 % 1010,3 hPa 0,0 l/m 0 min 0 min 0 W/m 25,7 km/h (4 Bft) 97,87 %
03.02.2020 01:36 10,7 C 10,0 C 9,4 C 87 % 1010,3 hPa 0,0 l/m 0 min 0 min 0 W/m 25,7 km/h (4 Bft) 100,00 %
03.02.2020 01:38 10,7 C 10,0 C 9,4 C 87 % 1010,4 hPa 0,0 l/m 0 min 0 min 0 W/m 19,3 km/h (3 Bft) 97,87 %
03.02.2020 01:40 10,7 C 10,0 C 9,4 C 87 % 1010,4 hPa 0,0 l/m 0 min 0 min 0 W/m 25,7 km/h (4 Bft) 100,00 %
03.02.2020 01:42 10,7 C 10,0 C 9,4 C 87 % 1010,3 hPa 0,0 l/m 0 min 0 min 0 W/m 19,3 km/h (3 Bft) 100,00 %
03.02.2020 01:44 10,7 C 10,0 C 9,4 C 87 % 1010,3 hPa 0,0 l/m 0 min 0 min 0 W/m 22,5 km/h (4 Bft) 100,00 %
03.02.2020 01:46 10,7 C 10,0 C 9,4 C 87 % 1010,3 hPa 0,0 l/m 0 min 0 min 0 W/m 29,0 km/h (5 Bft) 100,00 %
03.02.2020 01:48 10,7 C 10,0 C 9,4 C 87 % 1010,4 hPa 0,0 l/m 0 min 0 min 0 W/m 25,7 km/h (4 Bft) 100,00 %
03.02.2020 01:50 10,8 C 10,0 C 9,4 C 87 % 1010,4 hPa 0,0 l/m 0 min 0 min 0 W/m 41,8 km/h (6 Bft) 100,00 %
03.02.2020 01:52 10,8 C 10,0 C 9,4 C 87 % 1010,2 hPa 0,0 l/m 0 min 0 min 0 W/m 32,2 km/h (5 Bft) 97,87 %
03.02.2020 01:54 10,8 C 10,0 C 9,4 C 87 % 1010,4 hPa 0,0 l/m 0 min 0 min 0 W/m 19,3 km/h (3 Bft) 100,00 %
03.02.2020 01:56 10,8 C 10,0 C 9,4 C 87 % 1010,4 hPa 0,0 l/m 0 min 0 min 0 W/m 19,3 km/h (3 Bft) 100,00 %
03.02.2020 01:58 10,8 C 10,0 C 9,4 C 87 % 1010,4 hPa 0,0 l/m 0 min 0 min 0 W/m 22,5 km/h (4 Bft) 100,00 %
03.02.2020 02:00 10,8 C 10,0 C 9,4 C 88 % 1010,3 hPa 0,0 l/m 0 min 0 min 0 W/m 19,3 km/h (3 Bft) 100,00 %
03.02.2020 02:02 10,8 C 10,0 C 9,4 C 88 % 1010,5 hPa 0,0 l/m 0 min 0 min 0 W/m 16,1 km/h (3 Bft) 100,00 %
03.02.2020 02:04 10,8 C 10,0 C 9,4 C 88 % 1010,4 hPa 0,0 l/m 0 min 0 min 0 W/m 19,3 km/h (3 Bft) 100,00 %
03.02.2020 02:06 10,8 C 10,0 C 9,4 C 88 % 1010,5 hPa 0,0 l/m 0 min 0 min 0 W/m 22,5 km/h (4 Bft) 100,00 %
03.02.2020 02:08 10,8 C 10,0 C 9,4 C 88 % 1010,4 hPa 0,0 l/m 0 min 0 min 0 W/m 22,5 km/h (4 Bft) 97,87 %
03.02.2020 02:10 10,8 C 10,0 C 9,4 C 88 % 1010,4 hPa 0,0 l/m 0 min 0 min 0 W/m 16,1 km/h (3 Bft) 97,83 %
03.02.2020 02:12 10,8 C 10,0 C 9,4 C 88 % 1010,5 hPa 0,0 l/m 0 min 0 min 0 W/m 22,5 km/h (4 Bft) 95,74 %
03.02.2020 02:14 10,8 C 10,0 C 9,4 C 89 % 1010,3 hPa 0,0 l/m 0 min 0 min 0 W/m 19,3 km/h (3 Bft) 97,87 %
03.02.2020 02:16 10,8 C 10,0 C 8,9 C 89 % 1010,4 hPa 0,0 l/m 0 min 0 min 0 W/m 16,1 km/h (3 Bft) 97,87 %
03.02.2020 02:18 10,8 C 10,0 C 8,9 C 89 % 1010,5 hPa 0,0 l/m 0 min 0 min 0 W/m 16,1 km/h (3 Bft) 97,87 %
03.02.2020 02:20 10,7 C 10,0 C 8,9 C 89 % 1010,4 hPa 0,0 l/m 0 min 0 min 0 W/m 19,3 km/h (3 Bft) 95,74 %
03.02.2020 02:22 10,7 C 10,0 C 8,9 C 89 % 1010,4 hPa 0,0 l/m 0 min 0 min 0 W/m 16,1 km/h (3 Bft) 95,65 %
03.02.2020 02:24 10,7 C 9,4 C 8,9 C 89 % 1010,5 hPa 0,0 l/m 0 min 0 min 0 W/m 16,1 km/h (3 Bft) 97,87 %
03.02.2020 02:26 10,7 C 10,0 C 8,9 C 89 % 1010,5 hPa 0,0 l/m 0 min 0 min 0 W/m 12,9 km/h (3 Bft) 97,87 %
03.02.2020 02:28 10,7 C 10,0 C 8,9 C 89 % 1010,5 hPa 0,0 l/m 0 min 0 min 0 W/m 16,1 km/h (3 Bft) 97,87 %
03.02.2020 02:30 10,6 C 9,4 C 8,9 C 89 % 1010,7 hPa 0,0 l/m 0 min 0 min 0 W/m 12,9 km/h (3 Bft) 97,87 %
03.02.2020 02:32 10,6 C 9,4 C 8,9 C 89 % 1010,7 hPa 0,0 l/m 0 min 0 min 0 W/m 19,3 km/h (3 Bft) 97,87 %
03.02.2020 02:34 10,6 C 9,4 C 8,9 C 89 % 1010,5 hPa 0,0 l/m 0 min 0 min 0 W/m 16,1 km/h (3 Bft) 95,65 %
03.02.2020 02:36 10,6 C 9,4 C 8,9 C 90 % 1010,6 hPa 0,0 l/m 0 min 0 min 0 W/m 16,1 km/h (3 Bft) 95,74 %
03.02.2020 02:38 10,6 C 9,4 C 8,9 C 90 % 1010,6 hPa 0,0 l/m 0 min 0 min 0 W/m 22,5 km/h (4 Bft) 93,62 %
03.02.2020 02:40 10,6 C 9,4 C 8,9 C 90 % 1010,6 hPa 0,0 l/m 0 min 0 min 0 W/m 19,3 km/h (3 Bft) 95,74 %
03.02.2020 02:42 10,6 C 9,4 C 8,9 C 90 % 1010,6 hPa 0,0 l/m 0 min 0 min 0 W/m 16,1 km/h (3 Bft) 95,74 %
03.02.2020 02:44 10,6 C 9,4 C 8,9 C 90 % 1010,6 hPa 0,0 l/m 0 min 0 min 0 W/m 9,7 km/h (2 Bft) 93,62 %
03.02.2020 02:46 10,5 C 9,4 C 8,9 C 90 % 1010,7 hPa 0,0 l/m 0 min 0 min 0 W/m 12,9 km/h (3 Bft) 95,65 %
03.02.2020 02:48 10,5 C 9,4 C 8,9 C 90 % 1010,6 hPa 0,0 l/m 0 min 0 min 0 W/m 16,1 km/h (3 Bft) 95,74 %
03.02.2020 02:50 10,5 C 9,4 C 8,9 C 90 % 1010,6 hPa 0,0 l/m 0 min 0 min 0 W/m 19,3 km/h (3 Bft) 95,74 %
03.02.2020 02:52 10,4 C 9,4 C 8,9 C 90 % 1010,8 hPa 0,0 l/m 0 min 0 min 0 W/m 16,1 km/h (3 Bft) 95,74 %
03.02.2020 02:54 10,4 C 9,4 C 8,9 C 90 % 1010,7 hPa 0,0 l/m 0 min 0 min 0 W/m 19,3 km/h (3 Bft) 97,87 %
03.02.2020 02:56 10,4 C 9,4 C 8,9 C 90 % 1010,8 hPa 0,0 l/m 0 min 0 min 0 W/m 22,5 km/h (4 Bft) 97,87 %
03.02.2020 02:58 10,4 C 9,4 C 8,9 C 90 % 1010,7 hPa 0,0 l/m 0 min 0 min 0 W/m 22,5 km/h (4 Bft) 97,83 %
03.02.2020 03:00 10,4 C 9,4 C 8,9 C 90 % 1010,7 hPa 0,0 l/m 0 min 0 min 0 W/m 12,9 km/h (3 Bft) 97,87 %
03.02.2020 03:02 10,4 C 9,4 C 8,9 C 90 % 1010,7 hPa 0,0 l/m 0 min 0 min 0 W/m 16,1 km/h (3 Bft) 97,87 %
03.02.2020 03:04 10,4 C 9,4 C 8,9 C 90 % 1010,7 hPa 0,0 l/m 0 min 0 min 0 W/m 25,7 km/h (4 Bft) 97,87 %
03.02.2020 03:06 10,4 C 9,4 C 8,9 C 90 % 1010,7 hPa 0,0 l/m 0 min 0 min 0 W/m 19,3 km/h (3 Bft) 97,87 %
03.02.2020 03:08 10,4 C 9,4 C 8,9 C 90 % 1010,7 hPa 0,0 l/m 0 min 0 min 0 W/m 29,0 km/h (5 Bft) 97,87 %
03.02.2020 03:10 10,4 C 10,0 C 8,9 C 90 % 1010,7 hPa 0,0 l/m 0 min 0 min 0 W/m 19,3 km/h (3 Bft) 97,83 %
03.02.2020 03:12 10,4 C 9,4 C 8,9 C 90 % 1010,7 hPa 0,0 l/m 0 min 0 min 0 W/m 32,2 km/h (5 Bft) 97,87 %
03.02.2020 03:14 10,4 C 10,0 C 8,9 C 90 % 1010,7 hPa 0,0 l/m 0 min 0 min 0 W/m 19,3 km/h (3 Bft) 97,87 %
03.02.2020 03:16 10,4 C 9,4 C 8,9 C 90 % 1010,7 hPa 0,0 l/m 0 min 0 min 0 W/m 16,1 km/h (3 Bft) 97,87 %
03.02.2020 03:18 10,4 C 9,4 C 8,9 C 90 % 1010,7 hPa 0,0 l/m 0 min 0 min 0 W/m 16,1 km/h (3 Bft) 97,87 %
03.02.2020 03:20 10,4 C 9,4 C 8,9 C 90 % 1010,7 hPa 0,0 l/m 0 min 0 min 0 W/m 16,1 km/h (3 Bft) 97,83 %
03.02.2020 03:22 10,4 C 9,4 C 8,9 C 90 % 1010,7 hPa 0,0 l/m 0 min 0 min 0 W/m 19,3 km/h (3 Bft) 100,00 %
03.02.2020 03:24 10,4 C 9,4 C 8,9 C 90 % 1010,7 hPa 0,0 l/m 0 min 0 min 0 W/m 32,2 km/h (5 Bft) 97,87 %
03.02.2020 03:26 10,4 C 9,4 C 8,9 C 90 % 1010,8 hPa 0,0 l/m 0 min 0 min 0 W/m 19,3 km/h (3 Bft) 100,00 %
03.02.2020 03:28 10,4 C 9,4 C 8,9 C 90 % 1010,7 hPa 0,0 l/m 0 min 0 min 0 W/m 16,1 km/h (3 Bft) 97,87 %
03.02.2020 03:30 10,4 C 9,4 C 8,9 C 90 % 1010,9 hPa 0,0 l/m 0 min 0 min 0 W/m 12,9 km/h (3 Bft) 97,87 %
03.02.2020 03:32 10,4 C 9,4 C 8,9 C 90 % 1010,9 hPa 0,0 l/m 0 min 0 min 0 W/m 9,7 km/h (2 Bft) 97,83 %
03.02.2020 03:34 10,4 C 9,4 C 8,9 C 90 % 1010,9 hPa 0,0 l/m 0 min 0 min 0 W/m 25,7 km/h (4 Bft) 97,87 %
03.02.2020 03:36 10,4 C 9,4 C 8,9 C 90 % 1011,0 hPa 0,0 l/m 0 min 0 min 0 W/m 25,7 km/h (4 Bft) 97,87 %
03.02.2020 03:38 10,4 C 9,4 C 8,9 C 90 % 1010,9 hPa 0,0 l/m 0 min 0 min 0 W/m 22,5 km/h (4 Bft) 97,87 %
03.02.2020 03:40 10,4 C 9,4 C 8,9 C 90 % 1010,8 hPa 0,0 l/m 0 min 0 min 0 W/m 22,5 km/h (4 Bft) 97,87 %
03.02.2020 03:42 10,4 C 9,4 C 8,9 C 91 % 1010,9 hPa 0,0 l/m 0 min 0 min 0 W/m 19,3 km/h (3 Bft) 97,87 %
03.02.2020 03:44 10,4 C 9,4 C 8,9 C 91 % 1011,0 hPa 0,0 l/m 0 min 0 min 0 W/m 16,1 km/h (3 Bft) 97,83 %
03.02.2020 03:46 10,4 C 9,4 C 8,9 C 91 % 1011,0 hPa 0,0 l/m 0 min 0 min 0 W/m 25,7 km/h (4 Bft) 97,87 %
03.02.2020 03:48 10,4 C 9,4 C 8,9 C 91 % 1010,9 hPa 0,0 l/m 0 min 0 min 0 W/m 22,5 km/h (4 Bft) 97,87 %
03.02.2020 03:50 10,4 C 9,4 C 8,9 C 91 % 1011,0 hPa 0,0 l/m 0 min 0 min 0 W/m 22,5 km/h (4 Bft) 95,74 %
03.02.2020 03:52 10,4 C 9,4 C 8,9 C 91 % 1010,8 hPa 0,0 l/m 0 min 0 min 0 W/m 29,0 km/h (5 Bft) 97,87 %
03.02.2020 03:54 10,4 C 9,4 C 8,9 C 91 % 1010,9 hPa 0,0 l/m 0 min 0 min 0 W/m 19,3 km/h (3 Bft) 97,87 %
03.02.2020 03:56 10,4 C 9,4 C 8,9 C 91 % 1011,0 hPa 0,0 l/m 0 min 0 min 0 W/m 22,5 km/h (4 Bft) 97,83 %
03.02.2020 03:58 10,4 C 10,0 C 8,9 C 91 % 1010,9 hPa 0,0 l/m 0 min 0 min 0 W/m 22,5 km/h (4 Bft) 95,74 %
03.02.2020 04:00 10,4 C 9,4 C 8,9 C 91 % 1011,1 hPa 0,0 l/m 0 min 0 min 0 W/m 19,3 km/h (3 Bft) 97,87 %
03.02.2020 04:02 10,4 C 10,0 C 8,9 C 91 % 1011,1 hPa 0,0 l/m 0 min 0 min 0 W/m 16,1 km/h (3 Bft) 100,00 %
03.02.2020 04:04 10,4 C 9,4 C 8,9 C 91 % 1011,1 hPa 0,0 l/m 0 min 0 min 0 W/m 12,9 km/h (3 Bft) 97,87 %
03.02.2020 04:06 10,4 C 9,4 C 8,9 C 91 % 1011,2 hPa 0,0 l/m 0 min 0 min 0 W/m 19,3 km/h (3 Bft) 97,87 %
03.02.2020 04:08 10,4 C 9,4 C 8,9 C 91 % 1011,1 hPa 0,0 l/m 0 min 0 min 0 W/m 19,3 km/h (3 Bft) 97,83 %
03.02.2020 04:10 10,4 C 9,4 C 8,9 C 91 % 1011,2 hPa 0,0 l/m 0 min 0 min 0 W/m 25,7 km/h (4 Bft) 97,87 %
03.02.2020 04:12 10,4 C 9,4 C 8,9 C 90 % 1011,2 hPa 0,0 l/m 0 min 0 min 0 W/m 25,7 km/h (4 Bft) 97,87 %
03.02.2020 04:14 10,4 C 9,4 C 8,9 C 90 % 1011,2 hPa 0,0 l/m 0 min 0 min 0 W/m 19,3 km/h (3 Bft) 97,87 %
03.02.2020 04:16 10,4 C 9,4 C 8,9 C 90 % 1011,2 hPa 0,0 l/m 0 min 0 min 0 W/m 19,3 km/h (3 Bft) 97,87 %
03.02.2020 04:18 10,4 C 9,4 C 8,9 C 90 % 1011,2 hPa 0,0 l/m 0 min 0 min 0 W/m 16,1 km/h (3 Bft) 100,00 %
03.02.2020 04:20 10,4 C 10,0 C 8,9 C 90 % 1011,2 hPa 0,0 l/m 0 min 0 min 0 W/m 16,1 km/h (3 Bft) 100,00 %
03.02.2020 04:22 10,4 C 10,0 C 8,9 C 90 % 1011,3 hPa 0,0 l/m 0 min 0 min 0 W/m 22,5 km/h (4 Bft) 97,87 %
03.02.2020 04:24 10,4 C 10,0 C 8,9 C 90 % 1011,3 hPa 0,0 l/m 0 min 0 min 0 W/m 16,1 km/h (3 Bft) 97,87 %
03.02.2020 04:26 10,4 C 10,0 C 9,4 C 90 % 1011,2 hPa 0,0 l/m 0 min 0 min 0 W/m 19,3 km/h (3 Bft) 100,00 %
03.02.2020 04:28 10,4 C 10,0 C 9,4 C 90 % 1011,3 hPa 0,0 l/m 0 min 0 min 0 W/m 12,9 km/h (3 Bft) 100,00 %
03.02.2020 04:30 10,4 C 10,0 C 9,4 C 90 % 1011,4 hPa 0,0 l/m 0 min 0 min 0 W/m 25,7 km/h (4 Bft) 100,00 %
03.02.2020 04:32 10,5 C 10,0 C 9,4 C 90 % 1011,3 hPa 0,0 l/m 0 min 0 min 0 W/m 16,1 km/h (3 Bft) 97,83 %
03.02.2020 04:34 10,5 C 10,0 C 9,4 C 90 % 1011,2 hPa 0,0 l/m 0 min 0 min 0 W/m 16,1 km/h (3 Bft) 100,00 %
03.02.2020 04:36 10,6 C 10,0 C 9,4 C 90 % 1011,2 hPa 0,0 l/m 0 min 0 min 0 W/m 22,5 km/h (4 Bft) 100,00 %
03.02.2020 04:38 10,6 C 10,0 C 9,4 C 90 % 1011,2 hPa 0,0 l/m 0 min 0 min 0 W/m 22,5 km/h (4 Bft) 100,00 %
03.02.2020 04:40 10,6 C 10,0 C 9,4 C 90 % 1011,2 hPa 0,0 l/m 0 min 0 min 0 W/m 32,2 km/h (5 Bft) 100,00 %
03.02.2020 04:42 10,6 C 10,0 C 9,4 C 90 % 1011,4 hPa 0,0 l/m 0 min 0 min 0 W/m 19,3 km/h (3 Bft) 97,83 %
03.02.2020 04:44 10,6 C 10,0 C 9,4 C 90 % 1011,3 hPa 0,0 l/m 0 min 0 min 0 W/m 12,9 km/h (3 Bft) 97,87 %
03.02.2020 04:46 10,6 C 10,0 C 9,4 C 90 % 1011,3 hPa 0,0 l/m 0 min 0 min 0 W/m 16,1 km/h (3 Bft) 95,74 %
03.02.2020 04:48 10,6 C 10,0 C 9,4 C 90 % 1011,4 hPa 0,0 l/m 0 min 0 min 0 W/m 16,1 km/h (3 Bft) 97,87 %
03.02.2020 04:50 10,6 C 10,0 C 9,4 C 90 % 1011,3 hPa 0,0 l/m 0 min 0 min 0 W/m 16,1 km/h (3 Bft) 97,87 %
03.02.2020 04:52 10,6 C 10,0 C 9,4 C 90 % 1011,4 hPa 0,0 l/m 0 min 0 min 0 W/m 19,3 km/h (3 Bft) 97,87 %
03.02.2020 04:54 10,6 C 10,0 C 9,4 C 89 % 1011,5 hPa 0,0 l/m 0 min 0 min 0 W/m 16,1 km/h (3 Bft) 97,83 %
03.02.2020 04:56 10,6 C 10,0 C 9,4 C 89 % 1011,4 hPa 0,0 l/m 0 min 0 min 0 W/m 25,7 km/h (4 Bft) 97,87 %
03.02.2020 04:58 10,6 C 10,0 C 8,9 C 89 % 1011,4 hPa 0,0 l/m 0 min 0 min 0 W/m 19,3 km/h (3 Bft) 93,62 %
03.02.2020 05:00 10,6 C 9,4 C 8,9 C 89 % 1011,4 hPa 0,0 l/m 0 min 0 min 0 W/m 16,1 km/h (3 Bft) 97,87 %
03.02.2020 05:02 10,6 C 9,4 C 8,9 C 89 % 1011,5 hPa 0,0 l/m 0 min 0 min 0 W/m 22,5 km/h (4 Bft) 97,87 %
03.02.2020 05:04 10,5 C 9,4 C 8,9 C 89 % 1011,4 hPa 0,0 l/m 0 min 0 min 0 W/m 16,1 km/h (3 Bft) 97,87 %
03.02.2020 05:06 10,5 C 9,4 C 8,9 C 89 % 1011,4 hPa 0,0 l/m 0 min 0 min 0 W/m 25,7 km/h (4 Bft) 97,83 %
03.02.2020 05:08 10,5 C 9,4 C 8,9 C 89 % 1011,3 hPa 0,0 l/m 0 min 0 min 0 W/m 25,7 km/h (4 Bft) 95,74 %
03.02.2020 05:10 10,4 C 9,4 C 8,9 C 89 % 1011,4 hPa 0,0 l/m 0 min 0 min 0 W/m 12,9 km/h (3 Bft) 97,87 %
03.02.2020 05:12 10,4 C 9,4 C 8,9 C 89 % 1011,4 hPa 0,0 l/m 0 min 0 min 0 W/m 32,2 km/h (5 Bft) 95,74 %
03.02.2020 05:14 10,4 C 9,4 C 8,9 C 89 % 1011,4 hPa 0,0 l/m 0 min 0 min 0 W/m 19,3 km/h (3 Bft) 93,62 %
03.02.2020 05:16 10,4 C 9,4 C 8,9 C 89 % 1011,5 hPa 0,0 l/m 0 min 0 min 0 W/m 16,1 km/h (3 Bft) 95,74 %
03.02.2020 05:18 10,4 C 9,4 C 8,9 C 89 % 1011,5 hPa 0,0 l/m 0 min 0 min 0 W/m 12,9 km/h (3 Bft) 95,65 %
03.02.2020 05:20 10,3 C 9,4 C 8,9 C 89 % 1011,5 hPa 0,0 l/m 0 min 0 min 0 W/m 19,3 km/h (3 Bft) 93,62 %
03.02.2020 05:22 10,3 C 9,4 C 8,9 C 89 % 1011,5 hPa 0,0 l/m 0 min 0 min 0 W/m 16,1 km/h (3 Bft) 95,74 %
03.02.2020 05:24 10,3 C 9,4 C 8,9 C 89 % 1011,5 hPa 0,0 l/m 0 min 0 min 0 W/m 19,3 km/h (3 Bft) 95,74 %
03.02.2020 05:26 10,3 C 9,4 C 8,9 C 89 % 1011,4 hPa 0,0 l/m 0 min 0 min 0 W/m 12,9 km/h (3 Bft) 95,74 %
03.02.2020 05:28 10,3 C 9,4 C 8,9 C 89 % 1011,4 hPa 0,0 l/m 0 min 0 min 0 W/m 12,9 km/h (3 Bft) 97,87 %
03.02.2020 05:30 10,3 C 9,4 C 8,9 C 89 % 1011,3 hPa 0,0 l/m 0 min 0 min 0 W/m 9,7 km/h (2 Bft) 93,48 %
03.02.2020 05:32 10,2 C 9,4 C 8,3 C 89 % 1011,4 hPa 0,0 l/m 0 min 0 min 0 W/m 19,3 km/h (3 Bft) 97,87 %
03.02.2020 05:34 10,2 C 9,4 C 8,9 C 89 % 1011,4 hPa 0,0 l/m 0 min 0 min 0 W/m 19,3 km/h (3 Bft) 97,87 %
03.02.2020 05:36 10,2 C 9,4 C 8,9 C 89 % 1011,4 hPa 0,0 l/m 0 min 0 min 0 W/m 19,3 km/h (3 Bft) 97,87 %
03.02.2020 05:38 10,2 C 8,9 C 8,3 C 89 % 1011,4 hPa 0,0 l/m 0 min 0 min 0 W/m 12,9 km/h (3 Bft) 95,74 %
03.02.2020 05:40 10,1 C 8,9 C 8,3 C 89 % 1011,4 hPa 0,0 l/m 0 min 0 min 0 W/m 16,1 km/h (3 Bft) 97,87 %
03.02.2020 05:42 10,1 C 8,9 C 8,3 C 89 % 1011,4 hPa 0,0 l/m 0 min 0 min 0 W/m 19,3 km/h (3 Bft) 97,83 %
03.02.2020 05:44 10,1 C 9,4 C 8,3 C 89 % 1011,5 hPa 0,0 l/m 0 min 0 min 0 W/m 16,1 km/h (3 Bft) 97,87 %
03.02.2020 05:46 10,1 C 9,4 C 8,3 C 89 % 1011,6 hPa 0,0 l/m 0 min 0 min 0 W/m 19,3 km/h (3 Bft) 97,87 %
03.02.2020 05:48 10,1 C 8,9 C 8,3 C 89 % 1011,5 hPa 0,0 l/m 0 min 0 min 0 W/m 19,3 km/h (3 Bft) 97,87 %
03.02.2020 05:50 10,1 C 8,9 C 8,3 C 89 % 1011,6 hPa 0,0 l/m 0 min 0 min 0 W/m 16,1 km/h (3 Bft) 97,87 %
03.02.2020 05:52 10,0 C 8,9 C 8,3 C 90 % 1011,7 hPa 0,0 l/m 0 min 0 min 0 W/m 12,9 km/h (3 Bft) 97,83 %
03.02.2020 05:54 10,0 C 8,9 C 8,3 C 89 % 1011,7 hPa 0,0 l/m 0 min 0 min 0 W/m 16,1 km/h (3 Bft) 97,87 %
03.02.2020 05:56 10,0 C 9,4 C 8,3 C 90 % 1011,8 hPa 0,0 l/m 0 min 0 min 0 W/m 19,3 km/h (3 Bft) 93,62 %
03.02.2020 05:58 10,0 C 9,4 C 8,3 C 90 % 1011,9 hPa 0,0 l/m 0 min 0 min 0 W/m 16,1 km/h (3 Bft) 100,00 %
03.02.2020 06:00 10,0 C 8,9 C 8,3 C 90 % 1011,8 hPa 0,0 l/m 0 min 0 min 0 W/m 16,1 km/h (3 Bft) 100,00 %
03.02.2020 06:02 10,0 C 8,9 C 8,3 C 90 % 1011,8 hPa 0,0 l/m 0 min 0 min 0 W/m 22,5 km/h (4 Bft) 100,00 %
03.02.2020 06:04 9,9 C 8,9 C 8,3 C 90 % 1011,8 hPa 0,0 l/m 0 min 0 min 0 W/m 16,1 km/h (3 Bft) 100,00 %
03.02.2020 06:06 9,9 C 8,9 C 8,3 C 90 % 1011,8 hPa 0,0 l/m 0 min 0 min 0 W/m 19,3 km/h (3 Bft) 100,00 %
03.02.2020 06:08 9,9 C 8,9 C 8,3 C 90 % 1011,8 hPa 0,0 l/m 0 min 0 min 0 W/m 16,1 km/h (3 Bft) 100,00 %
03.02.2020 06:10 9,9 C 8,9 C 8,3 C 90 % 1011,8 hPa 0,0 l/m 0 min 0 min 0 W/m 19,3 km/h (3 Bft) 97,87 %
03.02.2020 06:12 9,9 C 8,9 C 8,3 C 90 % 1011,7 hPa 0,0 l/m 0 min 0 min 0 W/m 19,3 km/h (3 Bft) 100,00 %
03.02.2020 06:14 9,9 C 8,9 C 8,3 C 90 % 1011,6 hPa 0,0 l/m 0 min 0 min 0 W/m 19,3 km/h (3 Bft) 100,00 %
03.02.2020 06:16 9,9 C 8,9 C 8,3 C 90 % 1011,7 hPa 0,0 l/m 0 min 0 min 0 W/m 22,5 km/h (4 Bft) 97,83 %
03.02.2020 06:18 9,8 C 8,9 C 8,3 C 90 % 1011,6 hPa 0,0 l/m 0 min 0 min 0 W/m 19,3 km/h (3 Bft) 100,00 %
03.02.2020 06:20 9,8 C 8,9 C 8,3 C 90 % 1011,6 hPa 0,0 l/m 0 min 0 min 0 W/m 19,3 km/h (3 Bft) 100,00 %
03.02.2020 06:22 9,8 C 8,9 C 8,3 C 90 % 1011,8 hPa 0,0 l/m 0 min 0 min 0 W/m 12,9 km/h (3 Bft) 100,00 %
03.02.2020 06:24 9,8 C 8,9 C 8,3 C 90 % 1011,8 hPa 0,0 l/m 0 min 0 min 0 W/m 19,3 km/h (3 Bft) 100,00 %
03.02.2020 06:26 9,8 C 8,9 C 8,3 C 90 % 1011,8 hPa 0,0 l/m 0 min 0 min 0 W/m 19,3 km/h (3 Bft) 100,00 %
03.02.2020 06:28 9,8 C 8,9 C 8,3 C 90 % 1011,7 hPa 0,0 l/m 0 min 0 min 0 W/m 16,1 km/h (3 Bft) 100,00 %
03.02.2020 06:30 9,8 C 8,9 C 8,3 C 90 % 1011,8 hPa 0,0 l/m 0 min 0 min 0 W/m 12,9 km/h (3 Bft) 100,00 %
03.02.2020 06:32 9,8 C 8,9 C 8,3 C 90 % 1011,8 hPa 0,0 l/m 0 min 0 min 0 W/m 22,5 km/h (4 Bft) 100,00 %
03.02.2020 06:34 9,8 C 8,9 C 8,3 C 90 % 1011,6 hPa 0,0 l/m 0 min 0 min 0 W/m 19,3 km/h (3 Bft) 100,00 %
03.02.2020 06:36 9,8 C 8,9 C 8,3 C 90 % 1011,6 hPa 0,0 l/m 0 min 0 min 0 W/m 12,9 km/h (3 Bft) 100,00 %
03.02.2020 06:38 9,8 C 8,9 C 8,3 C 90 % 1011,6 hPa 0,0 l/m 0 min 0 min 0 W/m 16,1 km/h (3 Bft) 100,00 %
03.02.2020 06:40 9,8 C 9,4 C 8,3 C 90 % 1011,7 hPa 0,0 l/m 0 min 0 min 0 W/m 16,1 km/h (3 Bft) 100,00 %
03.02.2020 06:42 9,8 C 9,4 C 8,3 C 90 % 1011,7 hPa 0,0 l/m 0 min 0 min 0 W/m 16,1 km/h (3 Bft) 100,00 %
03.02.2020 06:44 9,8 C 9,4 C 8,3 C 90 % 1011,7 hPa 0,0 l/m 0 min 0 min 0 W/m 16,1 km/h (3 Bft) 97,87 %
03.02.2020 06:46 9,8 C 9,4 C 8,3 C 90 % 1011,7 hPa 0,0 l/m 0 min 0 min 0 W/m 16,1 km/h (3 Bft) 97,87 %
03.02.2020 06:48 9,8 C 9,4 C 8,9 C 90 % 1011,9 hPa 0,0 l/m 0 min 0 min 0 W/m 16,1 km/h (3 Bft) 95,74 %
03.02.2020 06:50 9,8 C 9,4 C 8,9 C 90 % 1011,8 hPa 0,0 l/m 0 min 0 min 0 W/m 16,1 km/h (3 Bft) 97,83 %
03.02.2020 06:52 9,8 C 9,4 C 8,9 C 91 % 1011,8 hPa 0,0 l/m 0 min 0 min 0 W/m 22,5 km/h (4 Bft) 97,87 %
03.02.2020 06:54 9,9 C 9,4 C 8,9 C 90 % 1011,8 hPa 0,0 l/m 0 min 0 min 0 W/m 19,3 km/h (3 Bft) 97,87 %
03.02.2020 06:56 9,9 C 9,4 C 8,9 C 90 % 1011,8 hPa 0,0 l/m 0 min 0 min 0 W/m 19,3 km/h (3 Bft) 97,87 %
03.02.2020 06:58 9,9 C 9,4 C 8,9 C 90 % 1011,8 hPa 0,0 l/m 0 min 0 min 0 W/m 25,7 km/h (4 Bft) 97,87 %
03.02.2020 07:00 9,9 C 9,4 C 8,9 C 90 % 1011,7 hPa 0,0 l/m 0 min 0 min 0 W/m 16,1 km/h (3 Bft) 97,87 %
03.02.2020 07:02 9,9 C 9,4 C 8,9 C 90 % 1011,7 hPa 0,0 l/m 0 min 0 min 0 W/m 16,1 km/h (3 Bft) 97,83 %
03.02.2020 07:04 9,9 C 9,4 C 8,9 C 90 % 1011,8 hPa 0,0 l/m 0 min 0 min 0 W/m 16,1 km/h (3 Bft) 97,87 %
03.02.2020 07:06 9,9 C 9,4 C 8,9 C 90 % 1011,8 hPa 0,0 l/m 0 min 0 min 0 W/m 22,5 km/h (4 Bft) 95,74 %
03.02.2020 07:08 10,0 C 9,4 C 8,9 C 90 % 1011,8 hPa 0,0 l/m 0 min 0 min 0 W/m 22,5 km/h (4 Bft) 95,74 %
03.02.2020 07:10 10,0 C 9,4 C 8,9 C 90 % 1011,8 hPa 0,0 l/m 0 min 0 min 0 W/m 16,1 km/h (3 Bft) 97,87 %
03.02.2020 07:12 10,0 C 9,4 C 8,9 C 90 % 1011,8 hPa 0,0 l/m 0 min 0 min 0 W/m 19,3 km/h (3 Bft) 97,87 %
03.02.2020 07:14 10,0 C 9,4 C 8,9 C 90 % 1011,8 hPa 0,0 l/m 0 min 0 min 0 W/m 19,3 km/h (3 Bft) 97,83 %
03.02.2020 07:16 10,0 C 9,4 C 8,9 C 90 % 1011,9 hPa 0,0 l/m 0 min 0 min 0 W/m 22,5 km/h (4 Bft) 97,87 %
03.02.2020 07:18 10,0 C 9,4 C 8,9 C 90 % 1011,8 hPa 0,0 l/m 0 min 0 min 0 W/m 16,1 km/h (3 Bft) 97,87 %
03.02.2020 07:20 10,0 C 9,4 C 8,9 C 90 % 1011,9 hPa 0,0 l/m 0 min 0 min 0 W/m 22,5 km/h (4 Bft) 95,74 %
03.02.2020 07:22 10,0 C 9,4 C 8,9 C 90 % 1012,0 hPa 0,0 l/m 0 min 0 min 0 W/m 22,5 km/h (4 Bft) 95,74 %
03.02.2020 07:24 10,1 C 9,4 C 8,9 C 90 % 1011,9 hPa 0,0 l/m 0 min 0 min 0 W/m 19,3 km/h (3 Bft) 95,74 %
03.02.2020 07:26 10,0 C 9,4 C 8,9 C 90 % 1012,0 hPa 0,0 l/m 0 min 0 min 0 W/m 16,1 km/h (3 Bft) 95,65 %
03.02.2020 07:28 10,1 C 9,4 C 8,9 C 90 % 1011,9 hPa 0,0 l/m 0 min 0 min 0 W/m 16,1 km/h (3 Bft) 95,74 %
03.02.2020 07:30 10,1 C 9,4 C 8,9 C 90 % 1011,9 hPa 0,0 l/m 0 min 0 min 0 W/m 19,3 km/h (3 Bft) 95,74 %
03.02.2020 07:32 10,0 C 9,4 C 8,9 C 90 % 1011,9 hPa 0,0 l/m 0 min 0 min 0 W/m 22,5 km/h (4 Bft) 91,49 %
03.02.2020 07:34 10,1 C 9,4 C 8,9 C 90 % 1012,0 hPa 0,0 l/m 0 min 0 min 0 W/m 12,9 km/h (3 Bft) 91,49 %
03.02.2020 07:36 10,0 C 9,4 C 8,9 C 90 % 1012,1 hPa 0,0 l/m 0 min 0 min 0 W/m 29,0 km/h (5 Bft) 91,49 %
03.02.2020 07:38 10,0 C 9,4 C 8,9 C 90 % 1012,2 hPa 0,0 l/m 0 min 0 min 0 W/m 16,1 km/h (3 Bft) 95,65 %
03.02.2020 07:40 10,0 C 9,4 C 8,9 C 90 % 1012,3 hPa 0,0 l/m 0 min 0 min 0 W/m 19,3 km/h (3 Bft) 96,00 %
03.02.2020 07:42 10,0 C 9,4 C 8,9 C 90 % 1012,3 hPa 0,0 l/m 0 min 0 min 0 W/m 16,1 km/h (3 Bft) 97,87 %
03.02.2020 07:44 10,0 C 9,4 C 8,9 C 90 % 1012,3 hPa 0,0 l/m 0 min 0 min 0 W/m 16,1 km/h (3 Bft) 95,74 %
03.02.2020 07:46 10,0 C 9,4 C 8,9 C 90 % 1012,2 hPa 0,0 l/m 0 min 0 min 0 W/m 22,5 km/h (4 Bft) 95,65 %
03.02.2020 07:48 10,0 C 9,4 C 8,3 C 90 % 1012,2 hPa 0,0 l/m 0 min 0 min 0 W/m 19,3 km/h (3 Bft) 97,87 %
03.02.2020 07:50 10,0 C 8,9 C 8,3 C 90 % 1012,3 hPa 0,0 l/m 0 min 0 min 0 W/m 16,1 km/h (3 Bft) 95,74 %
03.02.2020 07:52 10,0 C 8,9 C 8,3 C 90 % 1012,3 hPa 0,0 l/m 0 min 0 min 0 W/m 22,5 km/h (4 Bft) 97,87 %
03.02.2020 07:54 9,9 C 8,9 C 8,3 C 90 % 1012,3 hPa 0,0 l/m 0 min 0 min 0 W/m 12,9 km/h (3 Bft) 95,74 %
03.02.2020 07:56 9,9 C 8,9 C 8,3 C 90 % 1012,2 hPa 0,0 l/m 0 min 0 min 0 W/m 19,3 km/h (3 Bft) 93,62 %
03.02.2020 07:58 9,9 C 8,9 C 8,3 C 90 % 1012,1 hPa 0,0 l/m 0 min 0 min 0 W/m 16,1 km/h (3 Bft) 94,29 %
03.02.2020 08:00 9,9 C 8,9 C 8,3 C 90 % 1012,2 hPa 0,0 l/m 0 min 0 min 0 W/m 16,1 km/h (3 Bft) 94,83 %
03.02.2020 08:02 9,8 C 8,9 C 8,3 C 90 % 1012,2 hPa 0,0 l/m 0 min 0 min 0 W/m 9,7 km/h (2 Bft) 95,74 %
03.02.2020 08:04 9,8 C 8,9 C 8,3 C 90 % 1012,2 hPa 0,0 l/m 0 min 0 min 0 W/m 12,9 km/h (3 Bft) 97,87 %
03.02.2020 08:06 9,8 C 8,9 C 8,3 C 90 % 1012,1 hPa 0,0 l/m 0 min 0 min 0 W/m 19,3 km/h (3 Bft) 97,87 %
03.02.2020 08:08 9,8 C 8,9 C 8,3 C 90 % 1012,1 hPa 0,0 l/m 0 min 0 min 0 W/m 16,1 km/h (3 Bft) 97,87 %
03.02.2020 08:10 9,8 C 8,9 C 8,3 C 90 % 1012,2 hPa 0,0 l/m 0 min 0 min 0 W/m 9,7 km/h (2 Bft) 97,14 %
03.02.2020 08:12 9,7 C 8,3 C 7,8 C 90 % 1012,2 hPa 0,0 l/m 0 min 0 min 0 W/m 6,4 km/h (2 Bft) 97,87 %
03.02.2020 08:14 9,7 C 8,9 C 8,3 C 90 % 1012,2 hPa 0,0 l/m 0 min 0 min 5 W/m 22,5 km/h (4 Bft) 97,83 %
03.02.2020 08:16 9,7 C 8,9 C 8,3 C 90 % 1012,1 hPa 0,0 l/m 0 min 0 min 5 W/m 19,3 km/h (3 Bft) 97,87 %
03.02.2020 08:18 9,7 C 8,9 C 8,3 C 90 % 1012,1 hPa 0,0 l/m 0 min 0 min 5 W/m 12,9 km/h (3 Bft) 97,87 %
03.02.2020 08:20 9,7 C 8,9 C 8,3 C 90 % 1012,2 hPa 0,0 l/m 0 min 0 min 6 W/m 16,1 km/h (3 Bft) 97,87 %
03.02.2020 08:22 9,7 C 8,9 C 8,3 C 90 % 1012,2 hPa 0,0 l/m 0 min 0 min 6 W/m 12,9 km/h (3 Bft) 95,74 %
03.02.2020 08:24 9,7 C 8,9 C 8,3 C 90 % 1012,2 hPa 0,0 l/m 0 min 0 min 7 W/m 12,9 km/h (3 Bft) 97,87 %
03.02.2020 08:26 9,6 C 8,9 C 8,3 C 91 % 1012,3 hPa 0,0 l/m 0 min 0 min 9 W/m 19,3 km/h (3 Bft) 97,83 %
03.02.2020 08:28 9,6 C 8,9 C 8,3 C 91 % 1012,3 hPa 0,0 l/m 0 min 0 min 8 W/m 16,1 km/h (3 Bft) 93,62 %
03.02.2020 08:30 9,6 C 8,9 C 8,3 C 91 % 1012,3 hPa 0,0 l/m 0 min 0 min 11 W/m 16,1 km/h (3 Bft) 97,87 %
03.02.2020 08:32 9,6 C 8,9 C 8,3 C 91 % 1012,3 hPa 0,0 l/m 0 min 0 min 12 W/m 16,1 km/h (3 Bft) 95,74 %
03.02.2020 08:34 9,6 C 8,9 C 8,3 C 91 % 1012,4 hPa 0,0 l/m 0 min 0 min 11 W/m 22,5 km/h (4 Bft) 97,87 %
03.02.2020 08:36 9,6 C 8,9 C 8,3 C 91 % 1012,4 hPa 0,0 l/m 0 min 0 min 10 W/m 12,9 km/h (3 Bft) 97,83 %
03.02.2020 08:38 9,7 C 9,4 C 8,3 C 91 % 1012,4 hPa 0,0 l/m 0 min 0 min 9 W/m 19,3 km/h (3 Bft) 97,87 %
03.02.2020 08:40 9,7 C 9,4 C 8,3 C 91 % 1012,4 hPa 0,0 l/m 0 min 0 min 11 W/m 12,9 km/h (3 Bft) 100,00 %
03.02.2020 08:42 9,7 C 9,4 C 8,9 C 91 % 1012,3 hPa 0,0 l/m 0 min 0 min 11 W/m 16,1 km/h (3 Bft) 97,87 %
03.02.2020 08:44 9,7 C 9,4 C 8,9 C 91 % 1012,3 hPa 0,0 l/m 0 min 0 min 11 W/m 16,1 km/h (3 Bft) 100,00 %
03.02.2020 08:46 9,7 C 9,4 C 8,9 C 91 % 1012,3 hPa 0,0 l/m 0 min 0 min 14 W/m 16,1 km/h (3 Bft) 100,00 %
03.02.2020 08:48 9,8 C 9,4 C 8,9 C 91 % 1012,4 hPa 0,0 l/m 0 min 0 min 20 W/m 16,1 km/h (3 Bft) 100,00 %
03.02.2020 08:50 9,8 C 9,4 C 8,9 C 91 % 1012,4 hPa 0,0 l/m 0 min 0 min 27 W/m 19,3 km/h (3 Bft) 100,00 %
03.02.2020 08:52 9,8 C 9,4 C 8,9 C 91 % 1012,4 hPa 0,0 l/m 0 min 0 min 29 W/m 19,3 km/h (3 Bft) 100,00 %
03.02.2020 08:54 9,8 C 9,4 C 8,9 C 91 % 1012,5 hPa 0,0 l/m 0 min 0 min 32 W/m 16,1 km/h (3 Bft) 100,00 %
03.02.2020 08:56 9,9 C 9,4 C 8,9 C 91 % 1012,5 hPa 0,0 l/m 0 min 0 min 34 W/m 19,3 km/h (3 Bft) 100,00 %
03.02.2020 08:58 9,9 C 9,4 C 8,9 C 91 % 1012,5 hPa 0,0 l/m 0 min 0 min 39 W/m 19,3 km/h (3 Bft) 100,00 %
03.02.2020 09:00 9,9 C 9,4 C 8,9 C 91 % 1012,5 hPa 0,0 l/m 0 min 0 min 35 W/m 19,3 km/h (3 Bft) 100,00 %
03.02.2020 09:02 10,0 C 9,4 C 8,9 C 91 % 1012,6 hPa 0,0 l/m 0 min 0 min 38 W/m 19,3 km/h (3 Bft) 100,00 %
03.02.2020 09:04 10,0 C 10,0 C 8,9 C 91 % 1012,7 hPa 0,0 l/m 0 min 0 min 50 W/m 19,3 km/h (3 Bft) 100,00 %
03.02.2020 09:06 10,0 C 10,0 C 8,9 C 91 % 1012,7 hPa 0,0 l/m 0 min 0 min 49 W/m 12,9 km/h (3 Bft) 100,00 %
03.02.2020 09:08 10,1 C 10,0 C 8,9 C 91 % 1012,6 hPa 0,0 l/m 0 min 0 min 42 W/m 22,5 km/h (4 Bft) 100,00 %
03.02.2020 09:10 10,1 C 10,0 C 9,4 C 90 % 1012,6 hPa 0,0 l/m 0 min 0 min 43 W/m 22,5 km/h (4 Bft) 100,00 %
03.02.2020 09:12 10,1 C 10,0 C 9,4 C 90 % 1012,6 hPa 0,0 l/m 0 min 0 min 35 W/m 16,1 km/h (3 Bft) 100,00 %
03.02.2020 09:14 10,1 C 10,0 C 8,9 C 90 % 1012,6 hPa 0,0 l/m 0 min 0 min 33 W/m 12,9 km/h (3 Bft) 100,00 %
03.02.2020 09:16 10,1 C 10,0 C 8,9 C 90 % 1012,6 hPa 0,0 l/m 0 min 0 min 48 W/m 25,7 km/h (4 Bft) 100,00 %
03.02.2020 09:18 10,2 C 10,0 C 9,4 C 90 % 1012,7 hPa 0,0 l/m 0 min 0 min 50 W/m 19,3 km/h (3 Bft) 100,00 %
03.02.2020 09:20 10,2 C 10,0 C 8,9 C 90 % 1012,7 hPa 0,0 l/m 0 min 0 min 33 W/m 12,9 km/h (3 Bft) 100,00 %
03.02.2020 09:22 10,2 C 9,4 C 8,9 C 90 % 1012,7 hPa 0,0 l/m 0 min 0 min 28 W/m 19,3 km/h (3 Bft) 100,00 %
03.02.2020 09:24 10,2 C 9,4 C 8,9 C 90 % 1012,6 hPa 0,0 l/m 0 min 2 min 25 W/m 16,1 km/h (3 Bft) 100,00 %
03.02.2020 09:26 10,2 C 8,9 C 8,3 C 90 % 1012,6 hPa 0,0 l/m 0 min 0 min 35 W/m 12,9 km/h (3 Bft) 97,87 %
03.02.2020 09:28 10,2 C 9,4 C 8,3 C 90 % 1012,7 hPa 0,0 l/m 0 min 2 min 59 W/m 32,2 km/h (5 Bft) 97,87 %
03.02.2020 09:30 10,2 C 9,4 C 8,3 C 90 % 1012,7 hPa 0,0 l/m 0 min 2 min 67 W/m 16,1 km/h (3 Bft) 100,00 %
03.02.2020 09:32 10,2 C 8,9 C 8,3 C 90 % 1012,8 hPa 0,0 l/m 0 min 2 min 44 W/m 25,7 km/h (4 Bft) 97,87 %
03.02.2020 09:34 10,2 C 8,9 C 8,3 C 90 % 1012,7 hPa 0,0 l/m 0 min 2 min 49 W/m 16,1 km/h (3 Bft) 100,00 %
03.02.2020 09:36 10,2 C 8,9 C 7,8 C 90 % 1012,7 hPa 0,0 l/m 0 min 2 min 44 W/m 22,5 km/h (4 Bft) 97,87 %
03.02.2020 09:38 10,2 C 8,9 C 8,3 C 91 % 1012,7 hPa 0,0 l/m 0 min 2 min 61 W/m 41,8 km/h (6 Bft) 97,87 %
03.02.2020 09:40 10,1 C 8,9 C 8,3 C 91 % 1012,7 hPa 0,0 l/m 0 min 2 min 61 W/m 12,9 km/h (3 Bft) 100,00 %
03.02.2020 09:42 10,1 C 8,9 C 8,3 C 91 % 1012,7 hPa 0,0 l/m 0 min 2 min 52 W/m 29,0 km/h (5 Bft) 100,00 %
03.02.2020 09:44 10,1 C 8,9 C 8,3 C 91 % 1012,8 hPa 0,0 l/m 0 min 2 min 49 W/m 19,3 km/h (3 Bft) 100,00 %
03.02.2020 09:46 10,1 C 8,9 C 8,3 C 91 % 1012,8 hPa 0,0 l/m 0 min 2 min 40 W/m 22,5 km/h (4 Bft) 100,00 %
03.02.2020 09:48 10,1 C 8,9 C 8,3 C 91 % 1012,8 hPa 0,0 l/m 0 min 2 min 29 W/m 12,9 km/h (3 Bft) 100,00 %
03.02.2020 09:50 10,1 C 8,9 C 8,3 C 91 % 1012,9 hPa 0,0 l/m 0 min 2 min 36 W/m 19,3 km/h (3 Bft) 100,00 %
03.02.2020 09:52 10,1 C 8,9 C 8,3 C 91 % 1012,9 hPa 0,0 l/m 0 min 2 min 36 W/m 12,9 km/h (3 Bft) 95,74 %
03.02.2020 09:54 10,1 C 8,9 C 8,3 C 91 % 1013,0 hPa 0,0 l/m 0 min 2 min 35 W/m 12,9 km/h (3 Bft) 97,87 %
03.02.2020 09:56 10,0 C 9,4 C 8,3 C 91 % 1013,0 hPa 0,0 l/m 0 min 0 min 49 W/m 19,3 km/h (3 Bft) 97,87 %
03.02.2020 09:58 10,0 C 9,4 C 8,3 C 91 % 1013,1 hPa 0,0 l/m 0 min 0 min 61 W/m 16,1 km/h (3 Bft) 97,83 %
03.02.2020 10:00 9,9 C 10,6 C 8,9 C 91 % 1013,2 hPa 0,0 l/m 0 min 2 min 82 W/m 16,1 km/h (3 Bft) 97,87 %
03.02.2020 10:02 10,0 C 11,7 C 8,9 C 91 % 1013,3 hPa 0,0 l/m 2 min 2 min 177 W/m 16,1 km/h (3 Bft) 95,74 %
03.02.2020 10:04 10,0 C 12,2 C 8,9 C 91 % 1013,1 hPa 0,0 l/m 2 min 2 min 203 W/m 25,7 km/h (4 Bft) 95,74 %
03.02.2020 10:06 10,1 C 12,8 C 9,4 C 91 % 1013,2 hPa 0,0 l/m 2 min 2 min 266 W/m 22,5 km/h (4 Bft) 93,62 %
03.02.2020 10:08 10,1 C 13,3 C 9,4 C 91 % 1013,2 hPa 0,0 l/m 2 min 2 min 277 W/m 16,1 km/h (3 Bft) 95,74 %
03.02.2020 10:10 10,2 C 13,3 C 9,4 C 91 % 1013,3 hPa 0,0 l/m 2 min 2 min 278 W/m 25,7 km/h (4 Bft) 93,88 %
03.02.2020 10:12 10,3 C 12,8 C 9,4 C 91 % 1013,4 hPa 0,0 l/m 2 min 0 min 243 W/m 16,1 km/h (3 Bft) 95,74 %
03.02.2020 10:14 10,4 C 12,8 C 10,0 C 90 % 1013,5 hPa 0,0 l/m 2 min 0 min 237 W/m 16,1 km/h (3 Bft) 95,74 %
03.02.2020 10:16 10,5 C 12,2 C 10,0 C 90 % 1013,5 hPa 0,0 l/m 2 min 2 min 235 W/m 22,5 km/h (4 Bft) 95,74 %
03.02.2020 10:18 10,6 C 12,2 C 10,0 C 90 % 1013,3 hPa 0,0 l/m 2 min 0 min 243 W/m 19,3 km/h (3 Bft) 93,62 %
03.02.2020 10:20 10,6 C 12,2 C 10,0 C 89 % 1013,3 hPa 0,0 l/m 2 min 0 min 269 W/m 22,5 km/h (4 Bft) 95,65 %
03.02.2020 10:22 10,7 C 12,8 C 10,0 C 89 % 1013,4 hPa 0,0 l/m 2 min 0 min 316 W/m 19,3 km/h (3 Bft) 93,62 %
03.02.2020 10:24 10,8 C 13,9 C 10,0 C 89 % 1013,5 hPa 0,0 l/m 2 min 0 min 330 W/m 22,5 km/h (4 Bft) 95,74 %
03.02.2020 10:26 10,8 C 13,3 C 10,0 C 89 % 1013,6 hPa 0,0 l/m 2 min 0 min 328 W/m 29,0 km/h (5 Bft) 93,62 %
03.02.2020 10:28 10,9 C 12,2 C 10,0 C 88 % 1013,6 hPa 0,0 l/m 2 min 0 min 266 W/m 19,3 km/h (3 Bft) 95,74 %
03.02.2020 10:30 10,9 C 11,7 C 10,0 C 88 % 1013,6 hPa 0,0 l/m 2 min 0 min 187 W/m 19,3 km/h (3 Bft) 89,36 %
03.02.2020 10:32 11,0 C 12,2 C 10,6 C 87 % 1013,7 hPa 0,0 l/m 2 min 0 min 181 W/m 22,5 km/h (4 Bft) 93,48 %
03.02.2020 10:34 11,0 C 11,7 C 10,0 C 87 % 1013,6 hPa 0,0 l/m 0 min 0 min 138 W/m 32,2 km/h (5 Bft) 97,87 %
03.02.2020 10:36 11,0 C 11,1 C 10,0 C 86 % 1013,6 hPa 0,0 l/m 0 min 0 min 84 W/m 25,7 km/h (4 Bft) 97,87 %
03.02.2020 10:38 10,9 C 10,6 C 10,0 C 86 % 1013,7 hPa 0,0 l/m 0 min 0 min 97 W/m 25,7 km/h (4 Bft) 97,87 %
03.02.2020 10:40 10,9 C 10,6 C 10,0 C 86 % 1013,7 hPa 0,0 l/m 0 min 0 min 93 W/m 19,3 km/h (3 Bft) 89,36 %
03.02.2020 10:42 10,9 C 10,6 C 9,4 C 86 % 1013,9 hPa 0,0 l/m 0 min 0 min 91 W/m 22,5 km/h (4 Bft) 97,14 %
03.02.2020 10:44 10,9 C 10,0 C 8,9 C 86 % 1013,8 hPa 0,0 l/m 0 min 2 min 72 W/m 22,5 km/h (4 Bft) 98,31 %
03.02.2020 10:46 10,9 C 10,0 C 8,9 C 86 % 1013,9 hPa 0,0 l/m 0 min 2 min 46 W/m 25,7 km/h (4 Bft) 100,00 %
03.02.2020 10:48 10,8 C 10,0 C 8,9 C 86 % 1013,8 hPa 0,0 l/m 0 min 2 min 53 W/m 16,1 km/h (3 Bft) 100,00 %
03.02.2020 10:50 10,8 C 10,0 C 8,9 C 86 % 1013,7 hPa 0,0 l/m 0 min 2 min 61 W/m 19,3 km/h (3 Bft) 97,87 %
03.02.2020 10:52 10,8 C 10,0 C 9,4 C 86 % 1013,7 hPa 0,0 l/m 0 min 2 min 72 W/m 16,1 km/h (3 Bft) 100,00 %
03.02.2020 10:54 10,7 C 10,6 C 9,4 C 86 % 1013,7 hPa 0,0 l/m 0 min 0 min 99 W/m 25,7 km/h (4 Bft) 100,00 %
03.02.2020 10:56 10,7 C 10,6 C 9,4 C 86 % 1013,7 hPa 0,0 l/m 0 min 0 min 140 W/m 19,3 km/h (3 Bft) 100,00 %
03.02.2020 10:58 10,8 C 11,1 C 10,0 C 86 % 1013,7 hPa 0,0 l/m 2 min 0 min 181 W/m 16,1 km/h (3 Bft) 97,87 %
03.02.2020 11:00 10,8 C 11,1 C 10,0 C 85 % 1013,6 hPa 0,0 l/m 2 min 0 min 193 W/m 22,5 km/h (4 Bft) 95,74 %
03.02.2020 11:02 10,8 C 11,7 C 10,0 C 85 % 1013,6 hPa 0,0 l/m 2 min 0 min 162 W/m 12,9 km/h (3 Bft) 97,87 %
03.02.2020 11:04 10,9 C 11,7 C 10,0 C 85 % 1013,7 hPa 0,0 l/m 2 min 0 min 188 W/m 22,5 km/h (4 Bft) 97,83 %
03.02.2020 11:06 10,9 C 11,7 C 10,6 C 85 % 1013,8 hPa 0,0 l/m 2 min 0 min 216 W/m 16,1 km/h (3 Bft) 97,87 %
03.02.2020 11:08 10,9 C 12,2 C 10,6 C 85 % 1013,9 hPa 0,0 l/m 2 min 0 min 226 W/m 12,9 km/h (3 Bft) 95,74 %
03.02.2020 11:10 11,0 C 12,2 C 10,6 C 85 % 1013,7 hPa 0,0 l/m 2 min 0 min 225 W/m 38,6 km/h (5 Bft) 97,87 %
03.02.2020 11:12 11,1 C 12,8 C 10,6 C 85 % 1013,9 hPa 0,0 l/m 2 min 0 min 206 W/m 19,3 km/h (3 Bft) 97,87 %
03.02.2020 11:14 11,1 C 12,2 C 10,6 C 85 % 1013,7 hPa 0,0 l/m 2 min 0 min 179 W/m 25,7 km/h (4 Bft) 97,87 %
03.02.2020 11:16 11,1 C 11,7 C 10,0 C 84 % 1013,9 hPa 0,0 l/m 0 min 0 min 126 W/m 19,3 km/h (3 Bft) 97,83 %
03.02.2020 11:18 11,2 C 11,1 C 10,0 C 84 % 1013,9 hPa 0,0 l/m 0 min 0 min 110 W/m 25,7 km/h (4 Bft) 97,87 %
03.02.2020 11:20 11,1 C 11,1 C 10,0 C 84 % 1014,0 hPa 0,0 l/m 0 min 0 min 119 W/m 19,3 km/h (3 Bft) 95,74 %
03.02.2020 11:22 11,2 C 11,1 C 10,0 C 84 % 1014,0 hPa 0,0 l/m 0 min 0 min 135 W/m 29,0 km/h (5 Bft) 95,74 %
03.02.2020 11:24 11,1 C 11,1 C 10,0 C 83 % 1014,0 hPa 0,0 l/m 0 min 0 min 130 W/m 16,1 km/h (3 Bft) 97,87 %
03.02.2020 11:26 11,1 C 11,7 C 10,0 C 83 % 1014,0 hPa 0,0 l/m 0 min 0 min 151 W/m 19,3 km/h (3 Bft) 95,74 %
03.02.2020 11:28 11,1 C 11,7 C 10,0 C 84 % 1014,0 hPa 0,0 l/m 2 min 0 min 179 W/m 12,9 km/h (3 Bft) 97,83 %
03.02.2020 11:30 11,1 C 11,7 C 10,0 C 84 % 1013,9 hPa 0,0 l/m 0 min 0 min 155 W/m 16,1 km/h (3 Bft) 97,87 %
03.02.2020 11:32 11,1 C 12,8 C 10,6 C 84 % 1014,0 hPa 0,0 l/m 2 min 0 min 193 W/m 19,3 km/h (3 Bft) 93,62 %
03.02.2020 11:34 11,2 C 12,8 C 10,6 C 84 % 1014,1 hPa 0,0 l/m 2 min 0 min 255 W/m 19,3 km/h (3 Bft) 97,87 %
03.02.2020 11:36 11,2 C 12,2 C 10,6 C 84 % 1014,1 hPa 0,0 l/m 2 min 0 min 225 W/m 29,0 km/h (5 Bft) 97,87 %
03.02.2020 11:38 11,2 C 13,9 C 10,6 C 84 % 1014,2 hPa 0,0 l/m 2 min 0 min 311 W/m 19,3 km/h (3 Bft) 97,87 %
03.02.2020 11:40 11,3 C 14,4 C 10,6 C 85 % 1014,1 hPa 0,0 l/m 2 min 0 min 454 W/m 22,5 km/h (4 Bft) 97,83 %
03.02.2020 11:42 11,4 C 13,3 C 10,6 C 84 % 1014,1 hPa 0,0 l/m 2 min 0 min 412 W/m 32,2 km/h (5 Bft) 97,87 %
03.02.2020 11:44 11,4 C 12,2 C 10,6 C 85 % 1014,1 hPa 0,0 l/m 2 min 0 min 200 W/m 19,3 km/h (3 Bft) 97,87 %
03.02.2020 11:46 11,4 C 11,7 C 10,6 C 85 % 1014,1 hPa 0,0 l/m 2 min 2 min 183 W/m 19,3 km/h (3 Bft) 95,74 %
03.02.2020 11:48 11,4 C 11,1 C 10,0 C 85 % 1014,1 hPa 0,0 l/m 0 min 2 min 169 W/m 22,5 km/h (4 Bft) 97,87 %
03.02.2020 11:50 11,3 C 11,1 C 9,4 C 86 % 1014,1 hPa 0,0 l/m 0 min 2 min 155 W/m 29,0 km/h (5 Bft) 97,83 %
03.02.2020 11:52 11,2 C 10,6 C 9,4 C 85 % 1014,0 hPa 0,0 l/m 0 min 2 min 150 W/m 19,3 km/h (3 Bft) 97,87 %
03.02.2020 11:54 11,2 C 10,0 C 8,9 C 86 % 1014,0 hPa 0,0 l/m 0 min 2 min 140 W/m 16,1 km/h (3 Bft) 95,74 %
03.02.2020 11:56 11,1 C 10,0 C 9,4 C 87 % 1014,0 hPa 0,0 l/m 0 min 2 min 124 W/m 22,5 km/h (4 Bft) 95,74 %
03.02.2020 11:58 11,1 C 10,0 C 9,4 C 87 % 1014,0 hPa 0,0 l/m 0 min 2 min 109 W/m 19,3 km/h (3 Bft) 100,00 %
03.02.2020 12:00 11,0 C 10,0 C 9,4 C 87 % 1013,9 hPa 0,0 l/m 0 min 2 min 105 W/m 22,5 km/h (4 Bft) 100,00 %
03.02.2020 12:02 10,9 C 10,6 C 9,4 C 87 % 1013,9 hPa 0,0 l/m 0 min 0 min 117 W/m 16,1 km/h (3 Bft) 100,00 %
03.02.2020 12:04 10,9 C 10,0 C 9,4 C 87 % 1013,8 hPa 0,0 l/m 0 min 0 min 102 W/m 16,1 km/h (3 Bft) 97,87 %
03.02.2020 12:06 10,8 C 10,0 C 9,4 C 87 % 1013,9 hPa 0,0 l/m 0 min 0 min 94 W/m 16,1 km/h (3 Bft) 100,00 %
03.02.2020 12:08 10,8 C 10,0 C 9,4 C 87 % 1013,9 hPa 0,0 l/m 0 min 0 min 89 W/m 22,5 km/h (4 Bft) 95,74 %
03.02.2020 12:10 10,8 C 10,0 C 9,4 C 87 % 1014,0 hPa 0,0 l/m 0 min 0 min 87 W/m 25,7 km/h (4 Bft) 100,00 %
03.02.2020 12:12 10,7 C 10,0 C 9,4 C 87 % 1014,0 hPa 0,0 l/m 0 min 0 min 63 W/m 32,2 km/h (5 Bft) 97,87 %
03.02.2020 12:14 10,7 C 10,0 C 9,4 C 87 % 1013,9 hPa 0,0 l/m 0 min 0 min 63 W/m 22,5 km/h (4 Bft) 97,83 %
03.02.2020 12:16 10,7 C 10,6 C 10,0 C 87 % 1014,0 hPa 0,0 l/m 0 min 0 min 75 W/m 19,3 km/h (3 Bft) 97,87 %
03.02.2020 12:18 10,7 C 10,6 C 10,0 C 87 % 1014,0 hPa 0,0 l/m 0 min 0 min 85 W/m 12,9 km/h (3 Bft) 97,87 %
03.02.2020 12:20 10,7 C 10,6 C 10,0 C 88 % 1014,0 hPa 0,0 l/m 0 min 0 min 98 W/m 12,9 km/h (3 Bft) 97,87 %
03.02.2020 12:22 10,8 C 10,6 C 10,0 C 88 % 1014,0 hPa 0,0 l/m 0 min 0 min 94 W/m 22,5 km/h (4 Bft) 97,87 %
03.02.2020 12:24 10,8 C 10,6 C 10,0 C 88 % 1014,0 hPa 0,0 l/m 0 min 0 min 83 W/m 19,3 km/h (3 Bft) 97,87 %
03.02.2020 12:26 10,8 C 10,6 C 10,6 C 88 % 1014,0 hPa 0,0 l/m 0 min 0 min 96 W/m 12,9 km/h (3 Bft) 97,83 %
03.02.2020 12:28 10,8 C 10,6 C 10,6 C 87 % 1013,9 hPa 0,0 l/m 0 min 0 min 99 W/m 22,5 km/h (4 Bft) 95,74 %
03.02.2020 12:30 10,8 C 10,6 C 10,6 C 87 % 1014,0 hPa 0,0 l/m 0 min 0 min 77 W/m 16,1 km/h (3 Bft) 97,87 %
03.02.2020 12:32 10,8 C 10,6 C 10,6 C 87 % 1014,1 hPa 0,0 l/m 0 min 0 min 96 W/m 29,0 km/h (5 Bft) 95,74 %
03.02.2020 12:34 10,8 C 10,6 C 10,0 C 87 % 1014,0 hPa 0,0 l/m 0 min 0 min 109 W/m 16,1 km/h (3 Bft) 97,87 %
03.02.2020 12:36 10,8 C 10,6 C 10,0 C 87 % 1014,0 hPa 0,0 l/m 0 min 0 min 82 W/m 16,1 km/h (3 Bft) 97,87 %
03.02.2020 12:38 10,8 C 10,6 C 10,0 C 87 % 1014,0 hPa 0,0 l/m 0 min 0 min 72 W/m 25,7 km/h (4 Bft) 95,65 %
03.02.2020 12:40 10,8 C 10,6 C 10,0 C 87 % 1014,0 hPa 0,0 l/m 0 min 0 min 76 W/m 16,1 km/h (3 Bft) 97,87 %
03.02.2020 12:42 10,8 C 10,6 C 10,0 C 87 % 1014,1 hPa 0,0 l/m 0 min 0 min 88 W/m 16,1 km/h (3 Bft) 97,87 %
03.02.2020 12:44 10,8 C 10,6 C 10,6 C 87 % 1014,1 hPa 0,0 l/m 0 min 0 min 124 W/m 19,3 km/h (3 Bft) 93,62 %
03.02.2020 12:46 10,8 C 10,6 C 10,6 C 87 % 1014,0 hPa 0,0 l/m 0 min 0 min 132 W/m 16,1 km/h (3 Bft) 97,87 %
03.02.2020 12:48 10,8 C 10,6 C 10,6 C 87 % 1014,0 hPa 0,0 l/m 0 min 0 min 120 W/m 19,3 km/h (3 Bft) 97,87 %
03.02.2020 12:50 10,9 C 10,6 C 10,6 C 87 % 1014,0 hPa 0,0 l/m 0 min 0 min 120 W/m 9,7 km/h (2 Bft) 95,65 %
03.02.2020 12:52 10,9 C 10,6 C 10,6 C 87 % 1014,0 hPa 0,0 l/m 0 min 0 min 120 W/m 16,1 km/h (3 Bft) 95,74 %
03.02.2020 12:54 10,9 C 10,6 C 10,6 C 87 % 1013,9 hPa 0,0 l/m 0 min 0 min 102 W/m 16,1 km/h (3 Bft) 95,74 %
03.02.2020 12:56 10,9 C 10,6 C 10,6 C 86 % 1013,9 hPa 0,0 l/m 0 min 0 min 124 W/m 25,7 km/h (4 Bft) 93,62 %
03.02.2020 12:58 10,9 C 11,1 C 10,6 C 86 % 1013,9 hPa 0,0 l/m 0 min 0 min 158 W/m 6,4 km/h (2 Bft) 95,74 %
03.02.2020 13:00 10,9 C 11,1 C 10,6 C 86 % 1013,9 hPa 0,0 l/m 0 min 0 min 155 W/m 16,1 km/h (3 Bft) 95,65 %
03.02.2020 13:02 11,0 C 11,1 C 10,6 C 86 % 1014,0 hPa 0,0 l/m 0 min 0 min 132 W/m 16,1 km/h (3 Bft) 95,74 %
03.02.2020 13:04 11,0 C 11,1 C 10,6 C 86 % 1014,0 hPa 0,0 l/m 0 min 0 min 122 W/m 16,1 km/h (3 Bft) 97,87 %
03.02.2020 13:06 11,0 C 11,1 C 10,6 C 86 % 1014,0 hPa 0,0 l/m 0 min 0 min 123 W/m 12,9 km/h (3 Bft) 97,87 %
03.02.2020 13:08 11,1 C 11,1 C 10,6 C 86 % 1013,9 hPa 0,0 l/m 0 min 0 min 136 W/m 32,2 km/h (5 Bft) 97,87 %
03.02.2020 13:10 11,1 C 11,1 C 10,6 C 86 % 1013,9 hPa 0,0 l/m 0 min 0 min 157 W/m 16,1 km/h (3 Bft) 97,14 %
03.02.2020 13:12 11,1 C 11,1 C 10,6 C 86 % 1013,9 hPa 0,0 l/m 0 min 0 min 143 W/m 12,9 km/h (3 Bft) 95,74 %
03.02.2020 13:14 11,1 C 11,7 C 10,6 C 86 % 1013,9 hPa 0,0 l/m 0 min 0 min 158 W/m 16,1 km/h (3 Bft) 97,87 %
03.02.2020 13:16 11,1 C 11,7 C 10,6 C 86 % 1013,9 hPa 0,0 l/m 0 min 0 min 171 W/m 19,3 km/h (3 Bft) 97,83 %
03.02.2020 13:18 11,2 C 11,7 C 10,6 C 86 % 1014,0 hPa 0,0 l/m 0 min 0 min 153 W/m 19,3 km/h (3 Bft) 97,87 %
03.02.2020 13:20 11,2 C 11,7 C 11,1 C 85 % 1014,0 hPa 0,0 l/m 0 min 0 min 135 W/m 16,1 km/h (3 Bft) 97,87 %
03.02.2020 13:22 11,2 C 11,7 C 10,6 C 85 % 1014,0 hPa 0,0 l/m 0 min 0 min 126 W/m 22,5 km/h (4 Bft) 97,87 %
03.02.2020 13:24 11,2 C 11,7 C 10,6 C 85 % 1014,0 hPa 0,0 l/m 0 min 0 min 123 W/m 25,7 km/h (4 Bft) 97,87 %
03.02.2020 13:26 11,2 C 11,1 C 10,6 C 84 % 1014,0 hPa 0,0 l/m 0 min 0 min 100 W/m 16,1 km/h (3 Bft) 97,87 %
03.02.2020 13:28 11,3 C 11,1 C 10,6 C 84 % 1013,9 hPa 0,0 l/m 0 min 0 min 85 W/m 12,9 km/h (3 Bft) 97,83 %
03.02.2020 13:30 11,3 C 11,1 C 10,6 C 84 % 1013,9 hPa 0,0 l/m 0 min 0 min 89 W/m 16,1 km/h (3 Bft) 97,87 %
03.02.2020 13:32 11,2 C 11,1 C 10,6 C 84 % 1013,8 hPa 0,0 l/m 0 min 0 min 91 W/m 16,1 km/h (3 Bft) 97,87 %
03.02.2020 13:34 11,2 C 11,1 C 10,6 C 84 % 1013,7 hPa 0,0 l/m 0 min 0 min 76 W/m 16,1 km/h (3 Bft) 97,87 %
03.02.2020 13:36 11,2 C 10,6 C 10,6 C 84 % 1013,9 hPa 0,0 l/m 0 min 0 min 49 W/m 12,9 km/h (3 Bft) 97,87 %
03.02.2020 13:38 11,2 C 10,6 C 10,0 C 83 % 1013,7 hPa 0,0 l/m 0 min 0 min 53 W/m 16,1 km/h (3 Bft) 97,87 %
03.02.2020 13:40 11,2 C 10,6 C 10,0 C 83 % 1013,8 hPa 0,0 l/m 0 min 0 min 65 W/m 22,5 km/h (4 Bft) 98,15 %
03.02.2020 13:42 11,2 C 10,6 C 10,0 C 83 % 1013,9 hPa 0,0 l/m 0 min 0 min 57 W/m 19,3 km/h (3 Bft) 100,00 %
03.02.2020 13:44 11,2 C 10,6 C 10,0 C 83 % 1013,8 hPa 0,0 l/m 0 min 0 min 50 W/m 16,1 km/h (3 Bft) 100,00 %
03.02.2020 13:46 11,1 C 10,6 C 10,0 C 83 % 1013,8 hPa 0,0 l/m 0 min 0 min 51 W/m 16,1 km/h (3 Bft) 100,00 %
03.02.2020 13:48 11,1 C 10,6 C 10,0 C 83 % 1013,8 hPa 0,0 l/m 0 min 0 min 67 W/m 22,5 km/h (4 Bft) 100,00 %
03.02.2020 13:50 11,1 C 10,6 C 10,0 C 83 % 1013,9 hPa 0,0 l/m 0 min 0 min 86 W/m 19,3 km/h (3 Bft) 100,00 %
03.02.2020 13:52 11,1 C 10,6 C 10,0 C 83 % 1013,9 hPa 0,0 l/m 0 min 0 min 84 W/m 16,1 km/h (3 Bft) 100,00 %
03.02.2020 13:54 11,1 C 10,6 C 10,0 C 83 % 1013,9 hPa 0,0 l/m 0 min 0 min 87 W/m 19,3 km/h (3 Bft) 97,87 %
03.02.2020 13:56 11,1 C 10,6 C 10,0 C 83 % 1013,9 hPa 0,0 l/m 0 min 0 min 84 W/m 12,9 km/h (3 Bft) 100,00 %
03.02.2020 13:58 11,0 C 10,6 C 10,0 C 83 % 1013,9 hPa 0,0 l/m 0 min 0 min 75 W/m 22,5 km/h (4 Bft) 100,00 %
03.02.2020 14:00 11,0 C 10,6 C 10,0 C 83 % 1013,9 hPa 0,0 l/m 0 min 0 min 61 W/m 22,5 km/h (4 Bft) 100,00 %
03.02.2020 14:02 10,9 C 10,6 C 10,0 C 83 % 1014,0 hPa 0,0 l/m 0 min 0 min 54 W/m 19,3 km/h (3 Bft) 97,83 %
03.02.2020 14:04 10,9 C 10,0 C 10,0 C 83 % 1013,9 hPa 0,0 l/m 0 min 0 min 54 W/m 22,5 km/h (4 Bft) 97,87 %
03.02.2020 14:06 10,9 C 10,0 C 10,0 C 83 % 1013,9 hPa 0,0 l/m 0 min 0 min 59 W/m 12,9 km/h (3 Bft) 100,00 %
03.02.2020 14:08 10,9 C 10,0 C 10,0 C 83 % 1014,0 hPa 0,0 l/m 0 min 0 min 62 W/m 12,9 km/h (3 Bft) 100,00 %
03.02.2020 14:10 10,9 C 10,0 C 10,0 C 83 % 1013,9 hPa 0,0 l/m 0 min 0 min 61 W/m 19,3 km/h (3 Bft) 100,00 %
03.02.2020 14:12 10,8 C 10,0 C 9,4 C 83 % 1014,0 hPa 0,0 l/m 0 min 0 min 49 W/m 19,3 km/h (3 Bft) 95,65 %
03.02.2020 14:14 10,8 C 10,0 C 9,4 C 84 % 1014,0 hPa 0,0 l/m 0 min 2 min 48 W/m 16,1 km/h (3 Bft) 97,87 %
03.02.2020 14:16 10,8 C 10,0 C 9,4 C 84 % 1013,9 hPa 0,0 l/m 0 min 0 min 66 W/m 16,1 km/h (3 Bft) 97,87 %
03.02.2020 14:18 10,8 C 9,4 C 8,9 C 84 % 1013,9 hPa 0,0 l/m 0 min 0 min 68 W/m 22,5 km/h (4 Bft) 95,74 %
03.02.2020 14:20 10,8 C 9,4 C 8,9 C 85 % 1013,9 hPa 0,0 l/m 0 min 2 min 45 W/m 16,1 km/h (3 Bft) 97,87 %
03.02.2020 14:22 10,7 C 9,4 C 8,9 C 85 % 1013,8 hPa 0,0 l/m 0 min 2 min 37 W/m 19,3 km/h (3 Bft) 97,87 %
03.02.2020 14:24 10,7 C 8,9 C 8,3 C 85 % 1013,9 hPa 0,0 l/m 0 min 2 min 39 W/m 19,3 km/h (3 Bft) 97,83 %
03.02.2020 14:26 10,7 C 8,9 C 8,3 C 86 % 1013,8 hPa 0,0 l/m 0 min 2 min 31 W/m 9,7 km/h (2 Bft) 97,87 %
03.02.2020 14:28 10,6 C 8,3 C 7,8 C 86 % 1013,8 hPa 0,0 l/m 0 min 2 min 29 W/m 9,7 km/h (2 Bft) 97,87 %
03.02.2020 14:30 10,6 C 8,3 C 7,8 C 86 % 1013,7 hPa 0,0 l/m 0 min 2 min 23 W/m 9,7 km/h (2 Bft) 93,62 %
03.02.2020 14:32 10,6 C 8,3 C 7,8 C 87 % 1013,7 hPa 0,0 l/m 0 min 2 min 26 W/m 12,9 km/h (3 Bft) 97,87 %
03.02.2020 14:34 10,5 C 8,3 C 7,8 C 88 % 1013,8 hPa 0,0 l/m 0 min 2 min 31 W/m 19,3 km/h (3 Bft) 97,87 %
03.02.2020 14:36 10,4 C 8,3 C 7,8 C 88 % 1013,7 hPa 0,0 l/m 0 min 2 min 31 W/m 12,9 km/h (3 Bft) 97,83 %
03.02.2020 14:38 10,3 C 7,8 C 7,8 C 88 % 1013,7 hPa 0,2 l/m 0 min 2 min 43 W/m 9,7 km/h (2 Bft) 97,92 %
03.02.2020 14:40 10,3 C 7,8 C 7,8 C 89 % 1013,7 hPa 0,0 l/m 0 min 2 min 60 W/m 12,9 km/h (3 Bft) 97,14 %
03.02.2020 14:42 10,3 C 7,8 C 7,8 C 89 % 1013,6 hPa 0,0 l/m 0 min 2 min 70 W/m 6,4 km/h (2 Bft) 97,87 %
03.02.2020 14:44 10,2 C 8,3 C 7,8 C 89 % 1013,6 hPa 0,0 l/m 0 min 0 min 80 W/m 16,1 km/h (3 Bft) 97,87 %
03.02.2020 14:46 10,2 C 8,3 C 7,8 C 89 % 1013,5 hPa 0,0 l/m 0 min 0 min 88 W/m 12,9 km/h (3 Bft) 97,87 %
03.02.2020 14:48 10,1 C 8,3 C 7,8 C 90 % 1013,5 hPa 0,0 l/m 0 min 0 min 107 W/m 16,1 km/h (3 Bft) 97,87 %
03.02.2020 14:50 10,1 C 8,9 C 8,3 C 90 % 1013,5 hPa 0,0 l/m 0 min 0 min 110 W/m 12,9 km/h (3 Bft) 93,48 %
03.02.2020 14:52 10,1 C 8,9 C 8,3 C 90 % 1013,7 hPa 0,0 l/m 0 min 0 min 108 W/m 12,9 km/h (3 Bft) 95,74 %
03.02.2020 14:54 10,1 C 8,9 C 8,3 C 90 % 1013,7 hPa 0,0 l/m 0 min 0 min 100 W/m 6,4 km/h (2 Bft) 93,62 %
03.02.2020 14:56 10,1 C 8,9 C 8,3 C 90 % 1013,6 hPa 0,0 l/m 0 min 0 min 86 W/m 6,4 km/h (2 Bft) 91,49 %
03.02.2020 14:58 10,0 C 8,9 C 8,3 C 91 % 1013,6 hPa 0,0 l/m 0 min 0 min 69 W/m 12,9 km/h (3 Bft) 97,87 %
03.02.2020 15:00 10,0 C 8,9 C 8,3 C 91 % 1013,7 hPa 0,0 l/m 0 min 0 min 61 W/m 6,4 km/h (2 Bft) 95,65 %
03.02.2020 15:02 10,0 C 8,9 C 8,3 C 91 % 1013,7 hPa 0,0 l/m 0 min 0 min 53 W/m 16,1 km/h (3 Bft) 93,62 %
03.02.2020 15:04 9,9 C 8,9 C 8,3 C 91 % 1013,7 hPa 0,0 l/m 0 min 0 min 46 W/m 9,7 km/h (2 Bft) 97,87 %
03.02.2020 15:06 9,9 C 8,9 C 8,3 C 91 % 1013,7 hPa 0,0 l/m 0 min 0 min 39 W/m 16,1 km/h (3 Bft) 95,74 %
03.02.2020 15:08 9,9 C 8,9 C 8,3 C 91 % 1013,7 hPa 0,0 l/m 0 min 0 min 45 W/m 19,3 km/h (3 Bft) 93,62 %
03.02.2020 15:10 9,9 C 8,9 C 8,3 C 91 % 1013,7 hPa 0,0 l/m 0 min 0 min 42 W/m 9,7 km/h (2 Bft) 95,74 %
03.02.2020 15:12 9,9 C 8,9 C 8,3 C 90 % 1013,6 hPa 0,0 l/m 0 min 0 min 50 W/m 12,9 km/h (3 Bft) 97,83 %
03.02.2020 15:14 9,9 C 8,9 C 8,3 C 90 % 1013,6 hPa 0,0 l/m 0 min 0 min 54 W/m 16,1 km/h (3 Bft) 97,87 %
03.02.2020 15:16 9,9 C 8,9 C 8,3 C 90 % 1013,6 hPa 0,0 l/m 0 min 0 min 53 W/m 12,9 km/h (3 Bft) 95,74 %
03.02.2020 15:18 9,9 C 8,9 C 8,3 C 90 % 1013,5 hPa 0,0 l/m 0 min 0 min 50 W/m 6,4 km/h (2 Bft) 97,87 %
03.02.2020 15:20 9,9 C 9,4 C 8,3 C 90 % 1013,4 hPa 0,0 l/m 0 min 0 min 54 W/m 12,9 km/h (3 Bft) 97,87 %
03.02.2020 15:22 9,9 C 9,4 C 8,3 C 90 % 1013,4 hPa 0,0 l/m 0 min 0 min 88 W/m 6,4 km/h (2 Bft) 97,87 %
03.02.2020 15:24 9,9 C 9,4 C 8,3 C 90 % 1013,4 hPa 0,0 l/m 0 min 0 min 104 W/m 12,9 km/h (3 Bft) 97,83 %
03.02.2020 15:26 9,9 C 9,4 C 8,9 C 90 % 1013,4 hPa 0,0 l/m 0 min 0 min 109 W/m 9,7 km/h (2 Bft) 95,74 %
03.02.2020 15:28 9,9 C 9,4 C 8,9 C 90 % 1013,3 hPa 0,0 l/m 0 min 0 min 108 W/m 16,1 km/h (3 Bft) 97,87 %
03.02.2020 15:30 10,0 C 9,4 C 8,9 C 90 % 1013,4 hPa 0,0 l/m 0 min 0 min 85 W/m 9,7 km/h (2 Bft) 95,74 %
03.02.2020 15:32 10,0 C 9,4 C 8,9 C 90 % 1013,4 hPa 0,0 l/m 0 min 0 min 76 W/m 9,7 km/h (2 Bft) 95,74 %
03.02.2020 15:34 10,1 C 9,4 C 8,9 C 90 % 1013,4 hPa 0,0 l/m 0 min 0 min 68 W/m 9,7 km/h (2 Bft) 95,74 %
03.02.2020 15:36 10,1 C 9,4 C 8,9 C 90 % 1013,4 hPa 0,0 l/m 0 min 0 min 48 W/m 12,9 km/h (3 Bft) 97,83 %
03.02.2020 15:38 10,1 C 9,4 C 8,9 C 89 % 1013,4 hPa 0,0 l/m 0 min 0 min 43 W/m 16,1 km/h (3 Bft) 100,00 %
03.02.2020 15:40 10,1 C 9,4 C 8,9 C 89 % 1013,4 hPa 0,0 l/m 0 min 0 min 58 W/m 16,1 km/h (3 Bft) 97,87 %
03.02.2020 15:42 10,1 C 9,4 C 8,9 C 88 % 1013,3 hPa 0,0 l/m 0 min 0 min 69 W/m 9,7 km/h (2 Bft) 100,00 %
03.02.2020 15:44 10,1 C 9,4 C 8,9 C 88 % 1013,4 hPa 0,0 l/m 0 min 0 min 73 W/m 9,7 km/h (2 Bft) 97,87 %
03.02.2020 15:46 10,1 C 9,4 C 8,9 C 88 % 1013,4 hPa 0,0 l/m 0 min 0 min 59 W/m 16,1 km/h (3 Bft) 100,00 %
03.02.2020 15:48 10,1 C 9,4 C 8,9 C 88 % 1013,4 hPa 0,0 l/m 0 min 0 min 46 W/m 16,1 km/h (3 Bft) 100,00 %
03.02.2020 15:50 10,2 C 9,4 C 8,9 C 88 % 1013,4 hPa 0,0 l/m 0 min 0 min 32 W/m 19,3 km/h (3 Bft) 100,00 %
03.02.2020 15:52 10,2 C 9,4 C 8,9 C 88 % 1013,4 hPa 0,0 l/m 0 min 0 min 30 W/m 12,9 km/h (3 Bft) 100,00 %
03.02.2020 15:54 10,2 C 9,4 C 8,9 C 87 % 1013,5 hPa 0,0 l/m 0 min 0 min 33 W/m 6,4 km/h (2 Bft) 97,87 %
03.02.2020 15:56 10,2 C 9,4 C 8,9 C 88 % 1013,4 hPa 0,0 l/m 0 min 0 min 32 W/m 6,4 km/h (2 Bft) 100,00 %
03.02.2020 15:58 10,2 C 9,4 C 8,9 C 88 % 1013,4 hPa 0,0 l/m 0 min 0 min 34 W/m 9,7 km/h (2 Bft) 100,00 %
03.02.2020 16:00 10,2 C 9,4 C 8,9 C 88 % 1013,4 hPa 0,0 l/m 0 min 0 min 37 W/m 12,9 km/h (3 Bft) 100,00 %
03.02.2020 16:02 10,2 C 9,4 C 8,9 C 88 % 1013,4 hPa 0,0 l/m 0 min 0 min 31 W/m 6,4 km/h (2 Bft) 100,00 %
03.02.2020 16:04 10,2 C 9,4 C 8,9 C 88 % 1013,5 hPa 0,0 l/m 0 min 0 min 32 W/m 12,9 km/h (3 Bft) 100,00 %
03.02.2020 16:06 10,2 C 9,4 C 8,9 C 88 % 1013,5 hPa 0,0 l/m 0 min 0 min 28 W/m 19,3 km/h (3 Bft) 100,00 %
03.02.2020 16:08 10,2 C 9,4 C 8,9 C 88 % 1013,4 hPa 0,0 l/m 0 min 0 min 28 W/m 9,7 km/h (2 Bft) 100,00 %
03.02.2020 16:10 10,2 C 10,0 C 8,9 C 88 % 1013,4 hPa 0,0 l/m 0 min 0 min 32 W/m 9,7 km/h (2 Bft) 97,83 %
03.02.2020 16:12 10,2 C 10,0 C 8,9 C 88 % 1013,4 hPa 0,0 l/m 0 min 0 min 32 W/m 6,4 km/h (2 Bft) 97,87 %
03.02.2020 16:14 10,2 C 10,0 C 8,9 C 88 % 1013,4 hPa 0,0 l/m 0 min 0 min 32 W/m 16,1 km/h (3 Bft) 97,87 %
03.02.2020 16:16 10,2 C 9,4 C 8,9 C 88 % 1013,4 hPa 0,0 l/m 0 min 0 min 33 W/m 9,7 km/h (2 Bft) 97,87 %
03.02.2020 16:18 10,2 C 9,4 C 8,9 C 88 % 1013,4 hPa 0,0 l/m 0 min 0 min 36 W/m 12,9 km/h (3 Bft) 97,87 %
03.02.2020 16:20 10,2 C 9,4 C 8,9 C 88 % 1013,3 hPa 0,0 l/m 0 min 0 min 41 W/m 12,9 km/h (3 Bft) 95,74 %
03.02.2020 16:22 10,2 C 9,4 C 8,9 C 88 % 1013,3 hPa 0,0 l/m 0 min 0 min 42 W/m 6,4 km/h (2 Bft) 97,83 %
03.02.2020 16:24 10,2 C 9,4 C 8,9 C 88 % 1013,3 hPa 0,0 l/m 0 min 0 min 41 W/m 6,4 km/h (2 Bft) 97,87 %
03.02.2020 16:26 10,2 C 9,4 C 8,9 C 88 % 1013,2 hPa 0,0 l/m 0 min 0 min 47 W/m 6,4 km/h (2 Bft) 95,74 %
03.02.2020 16:28 10,2 C 9,4 C 8,9 C 88 % 1013,2 hPa 0,0 l/m 0 min 0 min 50 W/m 6,4 km/h (2 Bft) 97,87 %
03.02.2020 16:30 10,1 C 9,4 C 8,9 C 88 % 1013,2 hPa 0,0 l/m 0 min 0 min 48 W/m 9,7 km/h (2 Bft) 97,87 %
03.02.2020 16:32 10,1 C 9,4 C 8,9 C 88 % 1013,2 hPa 0,0 l/m 0 min 0 min 41 W/m 12,9 km/h (3 Bft) 97,83 %
03.02.2020 16:34 10,1 C 9,4 C 8,9 C 87 % 1013,1 hPa 0,0 l/m 0 min 0 min 37 W/m 9,7 km/h (2 Bft) 97,87 %
03.02.2020 16:36 10,1 C 9,4 C 8,9 C 87 % 1013,0 hPa 0,0 l/m 0 min 0 min 34 W/m 6,4 km/h (2 Bft) 97,87 %
03.02.2020 16:38 10,1 C 9,4 C 8,9 C 87 % 1013,1 hPa 0,0 l/m 0 min 0 min 32 W/m 12,9 km/h (3 Bft) 97,87 %
03.02.2020 16:40 10,1 C 9,4 C 8,9 C 87 % 1013,0 hPa 0,0 l/m 0 min 0 min 32 W/m 9,7 km/h (2 Bft) 95,74 %
03.02.2020 16:42 10,0 C 9,4 C 8,9 C 87 % 1013,0 hPa 0,0 l/m 0 min 0 min 36 W/m 12,9 km/h (3 Bft) 97,87 %
03.02.2020 16:44 10,0 C 9,4 C 8,9 C 87 % 1013,0 hPa 0,0 l/m 0 min 0 min 39 W/m 9,7 km/h (2 Bft) 97,83 %
03.02.2020 16:46 9,9 C 9,4 C 8,9 C 87 % 1012,9 hPa 0,0 l/m 0 min 0 min 36 W/m 9,7 km/h (2 Bft) 97,87 %
03.02.2020 16:48 9,9 C 9,4 C 8,9 C 87 % 1012,8 hPa 0,0 l/m 0 min 0 min 35 W/m 6,4 km/h (2 Bft) 97,87 %
03.02.2020 16:50 9,9 C 8,9 C 8,3 C 87 % 1012,7 hPa 0,0 l/m 0 min 0 min 35 W/m 9,7 km/h (2 Bft) 95,74 %
03.02.2020 16:52 9,9 C 8,9 C 8,3 C 87 % 1012,7 hPa 0,0 l/m 0 min 0 min 34 W/m 0,0 km/h (0 Bft) 97,87 %
03.02.2020 16:54 9,9 C 8,9 C 8,3 C 87 % 1012,7 hPa 0,0 l/m 0 min 0 min 32 W/m 3,2 km/h (1 Bft) 95,74 %
03.02.2020 16:56 9,9 C 8,9 C 8,3 C 87 % 1012,6 hPa 0,0 l/m 0 min 0 min 27 W/m 6,4 km/h (2 Bft) 95,65 %
03.02.2020 16:58 9,8 C 8,9 C 8,3 C 87 % 1012,7 hPa 0,0 l/m 0 min 0 min 23 W/m 6,4 km/h (2 Bft) 95,74 %
03.02.2020 17:00 9,8 C 8,9 C 8,3 C 87 % 1012,6 hPa 0,0 l/m 0 min 0 min 20 W/m 6,4 km/h (2 Bft) 95,74 %
03.02.2020 17:02 9,8 C 8,9 C 8,3 C 87 % 1012,6 hPa 0,0 l/m 0 min 0 min 15 W/m 6,4 km/h (2 Bft) 95,74 %
03.02.2020 17:04 9,8 C 8,9 C 8,3 C 87 % 1012,6 hPa 0,0 l/m 0 min 0 min 12 W/m 12,9 km/h (3 Bft) 95,74 %
03.02.2020 17:06 9,8 C 8,9 C 8,3 C 86 % 1012,5 hPa 0,0 l/m 0 min 0 min 12 W/m 16,1 km/h (3 Bft) 93,62 %
03.02.2020 17:08 9,7 C 8,9 C 8,9 C 86 % 1012,6 hPa 0,0 l/m 0 min 0 min 11 W/m 12,9 km/h (3 Bft) 95,65 %
03.02.2020 17:10 9,7 C 8,9 C 8,3 C 86 % 1012,4 hPa 0,0 l/m 0 min 0 min 9 W/m 6,4 km/h (2 Bft) 96,36 %
03.02.2020 17:12 9,7 C 8,9 C 8,9 C 86 % 1012,3 hPa 0,0 l/m 0 min 0 min 8 W/m 12,9 km/h (3 Bft) 95,74 %
03.02.2020 17:14 9,7 C 9,4 C 8,9 C 86 % 1012,3 hPa 0,0 l/m 0 min 0 min 7 W/m 9,7 km/h (2 Bft) 97,87 %
03.02.2020 17:16 9,7 C 9,4 C 8,9 C 85 % 1012,4 hPa 0,0 l/m 0 min 0 min 7 W/m 12,9 km/h (3 Bft) 97,87 %
03.02.2020 17:18 9,7 C 8,9 C 8,3 C 85 % 1012,3 hPa 0,0 l/m 0 min 0 min 5 W/m 6,4 km/h (2 Bft) 97,83 %
03.02.2020 17:20 9,7 C 8,9 C 8,3 C 85 % 1012,3 hPa 0,0 l/m 0 min 0 min 5 W/m 25,7 km/h (4 Bft) 97,87 %
03.02.2020 17:22 9,7 C 8,9 C 8,3 C 85 % 1012,3 hPa 0,0 l/m 0 min 0 min 1 W/m 12,9 km/h (3 Bft) 97,87 %
03.02.2020 17:24 9,7 C 8,9 C 8,3 C 85 % 1012,3 hPa 0,0 l/m 0 min 0 min 0 W/m 6,4 km/h (2 Bft) 97,87 %
03.02.2020 17:26 9,7 C 8,9 C 8,3 C 85 % 1012,2 hPa 0,0 l/m 0 min 0 min 0 W/m 12,9 km/h (3 Bft) 97,87 %
03.02.2020 17:28 9,7 C 8,9 C 8,3 C 85 % 1012,3 hPa 0,0 l/m 0 min 0 min 0 W/m 6,4 km/h (2 Bft) 95,74 %
03.02.2020 17:30 9,7 C 8,9 C 8,3 C 84 % 1012,3 hPa 0,0 l/m 0 min 0 min 0 W/m 6,4 km/h (2 Bft) 97,83 %
03.02.2020 17:32 9,7 C 8,9 C 8,3 C 84 % 1012,3 hPa 0,0 l/m 0 min 0 min 0 W/m 6,4 km/h (2 Bft) 97,87 %
03.02.2020 17:34 9,7 C 8,9 C 8,3 C 85 % 1012,4 hPa 0,0 l/m 0 min 0 min 0 W/m 6,4 km/h (2 Bft) 95,74 %
03.02.2020 17:36 9,7 C 8,9 C 8,3 C 85 % 1012,3 hPa 0,0 l/m 0 min 0 min 0 W/m 6,4 km/h (2 Bft) 95,74 %
03.02.2020 17:38 9,7 C 8,9 C 8,3 C 85 % 1012,3 hPa 0,0 l/m 0 min 0 min 0 W/m 9,7 km/h (2 Bft) 97,87 %
03.02.2020 17:40 9,6 C 8,9 C 8,3 C 85 % 1012,3 hPa 0,0 l/m 0 min 0 min 0 W/m 9,7 km/h (2 Bft) 93,62 %
03.02.2020 17:42 9,6 C 8,9 C 8,3 C 85 % 1012,2 hPa 0,0 l/m 0 min 0 min 0 W/m 6,4 km/h (2 Bft) 97,83 %
03.02.2020 17:44 9,6 C 8,9 C 8,3 C 85 % 1012,2 hPa 0,0 l/m 0 min 0 min 0 W/m 3,2 km/h (1 Bft) 97,87 %
03.02.2020 17:46 9,6 C 8,9 C 8,3 C 85 % 1012,1 hPa 0,0 l/m 0 min 0 min 0 W/m 0,0 km/h (0 Bft) 97,87 %
03.02.2020 17:48 9,6 C 8,9 C 7,8 C 85 % 1012,1 hPa 0,0 l/m 0 min 0 min 0 W/m 0,0 km/h (0 Bft) 97,87 %
03.02.2020 17:50 9,6 C 8,9 C 8,3 C 85 % 1012,0 hPa 0,0 l/m 0 min 0 min 0 W/m 0,0 km/h (0 Bft) 95,74 %
03.02.2020 17:52 9,6 C 8,9 C 8,3 C 85 % 1012,0 hPa 0,0 l/m 0 min 0 min 0 W/m 6,4 km/h (2 Bft) 97,87 %
03.02.2020 17:54 9,6 C 8,9 C 8,3 C 85 % 1011,9 hPa 0,0 l/m 0 min 0 min 0 W/m 0,0 km/h (0 Bft) 97,83 %
03.02.2020 17:56 9,6 C 8,3 C 8,3 C 85 % 1011,9 hPa 0,0 l/m 0 min 0 min 0 W/m 0,0 km/h (0 Bft) 97,87 %
03.02.2020 17:58 9,6 C 8,3 C 7,8 C 85 % 1011,9 hPa 0,0 l/m 0 min 0 min 0 W/m 0,0 km/h (0 Bft) 95,74 %
03.02.2020 18:00 9,6 C 8,3 C 7,8 C 85 % 1012,0 hPa 0,0 l/m 0 min 0 min 0 W/m 3,2 km/h (1 Bft) 97,87 %
03.02.2020 18:02 9,6 C 8,3 C 7,8 C 85 % 1011,9 hPa 0,0 l/m 0 min 0 min 0 W/m 3,2 km/h (1 Bft) 95,74 %
03.02.2020 18:04 9,6 C 8,3 C 7,8 C 85 % 1011,9 hPa 0,0 l/m 0 min 0 min 0 W/m 3,2 km/h (1 Bft) 97,87 %
03.02.2020 18:07 9,6 C 8,3 C 7,8 C 85 % 1011,9 hPa 0,0 l/m 0 min 0 min 0 W/m 6,4 km/h (2 Bft) 97,87 %
03.02.2020 18:08 9,5 C 8,3 C 7,8 C 85 % 1011,9 hPa 0,0 l/m 0 min 0 min 0 W/m 6,4 km/h (2 Bft) 97,65 %
03.02.2020 18:10 9,5 C 8,9 C 7,8 C 85 % 1011,8 hPa 0,0 l/m 0 min 0 min 0 W/m 6,4 km/h (2 Bft) 93,62 %
03.02.2020 18:12 9,5 C 8,9 C 7,8 C 85 % 1011,8 hPa 0,0 l/m 0 min 0 min 0 W/m 6,4 km/h (2 Bft) 95,74 %
03.02.2020 18:14 9,5 C 8,9 C 7,8 C 85 % 1011,6 hPa 0,0 l/m 0 min 0 min 0 W/m 9,7 km/h (2 Bft) 95,74 %
03.02.2020 18:16 9,4 C 8,3 C 7,8 C 86 % 1011,6 hPa 0,0 l/m 0 min 0 min 0 W/m 6,4 km/h (2 Bft) 97,87 %
03.02.2020 18:18 9,4 C 8,9 C 8,3 C 86 % 1011,6 hPa 0,0 l/m 0 min 0 min 0 W/m 9,7 km/h (2 Bft) 95,65 %
03.02.2020 18:20 9,4 C 8,9 C 7,8 C 86 % 1011,5 hPa 0,0 l/m 0 min 0 min 0 W/m 6,4 km/h (2 Bft) 100,00 %
03.02.2020 18:22 9,4 C 8,9 C 7,8 C 86 % 1011,5 hPa 0,0 l/m 0 min 0 min 0 W/m 6,4 km/h (2 Bft) 100,00 %
03.02.2020 18:24 9,4 C 8,9 C 7,8 C 86 % 1011,6 hPa 0,0 l/m 0 min 0 min 0 W/m 9,7 km/h (2 Bft) 100,00 %
03.02.2020 18:26 9,4 C 8,3 C 7,8 C 86 % 1011,6 hPa 0,0 l/m 0 min 0 min 0 W/m 6,4 km/h (2 Bft) 97,87 %
03.02.2020 18:28 9,4 C 8,9 C 7,8 C 86 % 1011,5 hPa 0,0 l/m 0 min 0 min 0 W/m 12,9 km/h (3 Bft) 100,00 %
03.02.2020 18:30 9,4 C 8,9 C 8,3 C 86 % 1011,5 hPa 0,0 l/m 0 min 0 min 0 W/m 12,9 km/h (3 Bft) 100,00 %
03.02.2020 18:32 9,4 C 8,9 C 8,3 C 86 % 1011,5 hPa 0,0 l/m 0 min 0 min 0 W/m 6,4 km/h (2 Bft) 100,00 %
03.02.2020 18:34 9,4 C 8,9 C 8,3 C 86 % 1011,5 hPa 0,0 l/m 0 min 0 min 0 W/m 12,9 km/h (3 Bft) 100,00 %
03.02.2020 18:36 9,4 C 8,9 C 8,3 C 86 % 1011,5 hPa 0,0 l/m 0 min 0 min 0 W/m 16,1 km/h (3 Bft) 100,00 %
03.02.2020 18:38 9,4 C 8,9 C 8,3 C 86 % 1011,5 hPa 0,0 l/m 0 min 0 min 0 W/m 12,9 km/h (3 Bft) 100,00 %
03.02.2020 18:40 9,4 C 8,9 C 8,3 C 86 % 1011,5 hPa 0,0 l/m 0 min 0 min 0 W/m 16,1 km/h (3 Bft) 100,00 %
03.02.2020 18:42 9,4 C 8,9 C 8,3 C 86 % 1011,5 hPa 0,0 l/m 0 min 0 min 0 W/m 12,9 km/h (3 Bft) 100,00 %
03.02.2020 18:44 9,4 C 8,9 C 8,3 C 86 % 1011,5 hPa 0,0 l/m 0 min 0 min 0 W/m 12,9 km/h (3 Bft) 97,87 %
03.02.2020 18:46 9,4 C 8,9 C 8,3 C 86 % 1011,4 hPa 0,0 l/m 0 min 0 min 0 W/m 12,9 km/h (3 Bft) 100,00 %
03.02.2020 18:48 9,4 C 8,9 C 8,3 C 86 % 1011,3 hPa 0,0 l/m 0 min 0 min 0 W/m 12,9 km/h (3 Bft) 100,00 %
03.02.2020 18:50 9,4 C 8,9 C 7,8 C 86 % 1011,3 hPa 0,0 l/m 0 min 0 min 0 W/m 9,7 km/h (2 Bft) 100,00 %
03.02.2020 18:52 9,4 C 8,9 C 8,3 C 86 % 1011,3 hPa 0,0 l/m 0 min 0 min 0 W/m 9,7 km/h (2 Bft) 100,00 %
03.02.2020 18:54 9,4 C 8,9 C 8,3 C 86 % 1011,2 hPa 0,0 l/m 0 min 0 min 0 W/m 6,4 km/h (2 Bft) 100,00 %
03.02.2020 18:56 9,4 C 8,9 C 8,3 C 86 % 1011,3 hPa 0,0 l/m 0 min 0 min 0 W/m 6,4 km/h (2 Bft) 100,00 %
03.02.2020 18:58 9,4 C 8,9 C 8,3 C 86 % 1011,2 hPa 0,0 l/m 0 min 0 min 0 W/m 6,4 km/h (2 Bft) 100,00 %
03.02.2020 19:00 9,4 C 8,9 C 8,3 C 86 % 1011,2 hPa 0,0 l/m 0 min 0 min 0 W/m 9,7 km/h (2 Bft) 100,00 %
03.02.2020 19:02 9,4 C 8,9 C 8,3 C 86 % 1011,2 hPa 0,0 l/m 0 min 0 min 0 W/m 16,1 km/h (3 Bft) 100,00 %
03.02.2020 19:04 9,4 C 8,9 C 8,3 C 86 % 1011,3 hPa 0,0 l/m 0 min 0 min 0 W/m 16,1 km/h (3 Bft) 100,00 %
03.02.2020 19:06 9,4 C 8,9 C 8,3 C 86 % 1011,3 hPa 0,0 l/m 0 min 0 min 0 W/m 12,9 km/h (3 Bft) 100,00 %
03.02.2020 19:08 9,4 C 8,9 C 8,3 C 86 % 1011,3 hPa 0,0 l/m 0 min 0 min 0 W/m 9,7 km/h (2 Bft) 100,00 %
03.02.2020 19:10 9,4 C 8,9 C 8,3 C 86 % 1011,3 hPa 0,0 l/m 0 min 0 min 0 W/m 9,7 km/h (2 Bft) 100,00 %
03.02.2020 19:12 9,4 C 8,9 C 8,3 C 86 % 1011,2 hPa 0,0 l/m 0 min 0 min 0 W/m 9,7 km/h (2 Bft) 100,00 %
03.02.2020 19:14 9,4 C 8,3 C 8,3 C 87 % 1011,2 hPa 0,0 l/m 0 min 2 min 0 W/m 6,4 km/h (2 Bft) 100,00 %
03.02.2020 19:16 9,4 C 8,3 C 7,8 C 87 % 1011,2 hPa 0,0 l/m 0 min 2 min 0 W/m 12,9 km/h (3 Bft) 100,00 %
03.02.2020 19:18 9,4 C 8,3 C 7,8 C 87 % 1011,1 hPa 0,0 l/m 0 min 2 min 0 W/m 12,9 km/h (3 Bft) 97,87 %
03.02.2020 19:20 9,4 C 8,3 C 7,8 C 87 % 1011,2 hPa 0,0 l/m 0 min 2 min 0 W/m 6,4 km/h (2 Bft) 100,00 %
03.02.2020 19:22 9,4 C 7,8 C 7,8 C 87 % 1011,2 hPa 0,0 l/m 0 min 2 min 0 W/m 6,4 km/h (2 Bft) 97,87 %
03.02.2020 19:24 9,4 C 7,8 C 7,8 C 87 % 1011,1 hPa 0,0 l/m 0 min 2 min 0 W/m 12,9 km/h (3 Bft) 100,00 %
03.02.2020 19:26 9,4 C 7,8 C 7,2 C 87 % 1011,1 hPa 0,0 l/m 0 min 2 min 0 W/m 9,7 km/h (2 Bft) 97,87 %
03.02.2020 19:28 9,4 C 7,8 C 7,2 C 87 % 1011,1 hPa 0,0 l/m 0 min 2 min 0 W/m 9,7 km/h (2 Bft) 97,83 %
03.02.2020 19:30 9,4 C 7,8 C 7,2 C 88 % 1011,1 hPa 0,0 l/m 0 min 2 min 0 W/m 6,4 km/h (2 Bft) 97,87 %
03.02.2020 19:32 9,4 C 7,8 C 7,2 C 88 % 1011,1 hPa 0,0 l/m 0 min 2 min 0 W/m 9,7 km/h (2 Bft) 97,87 %
03.02.2020 19:34 9,3 C 7,8 C 7,2 C 88 % 1011,1 hPa 0,0 l/m 0 min 2 min 0 W/m 16,1 km/h (3 Bft) 97,87 %
03.02.2020 19:36 9,3 C 7,8 C 7,2 C 88 % 1011,1 hPa 0,0 l/m 0 min 2 min 0 W/m 16,1 km/h (3 Bft) 97,87 %
03.02.2020 19:38 9,3 C 7,8 C 7,2 C 88 % 1011,1 hPa 0,0 l/m 0 min 2 min 0 W/m 9,7 km/h (2 Bft) 97,83 %
03.02.2020 19:40 9,3 C 7,8 C 7,2 C 88 % 1011,0 hPa 0,0 l/m 0 min 2 min 0 W/m 6,4 km/h (2 Bft) 93,62 %
03.02.2020 19:42 9,3 C 7,2 C 6,7 C 88 % 1010,9 hPa 0,0 l/m 0 min 2 min 0 W/m 9,7 km/h (2 Bft) 95,74 %
03.02.2020 19:44 9,3 C 7,2 C 6,7 C 88 % 1010,8 hPa 0,0 l/m 0 min 2 min 0 W/m 6,4 km/h (2 Bft) 95,74 %
03.02.2020 19:46 9,3 C 7,2 C 6,7 C 88 % 1010,7 hPa 0,0 l/m 0 min 2 min 0 W/m 16,1 km/h (3 Bft) 95,74 %
03.02.2020 19:48 9,2 C 7,2 C 6,7 C 88 % 1010,7 hPa 0,0 l/m 0 min 2 min 0 W/m 16,1 km/h (3 Bft) 95,74 %
03.02.2020 19:50 9,2 C 7,2 C 6,7 C 88 % 1010,6 hPa 0,0 l/m 0 min 2 min 0 W/m 16,1 km/h (3 Bft) 93,62 %
03.02.2020 19:52 9,2 C 7,2 C 6,7 C 88 % 1010,5 hPa 0,0 l/m 0 min 2 min 0 W/m 6,4 km/h (2 Bft) 95,65 %
03.02.2020 19:54 9,2 C 7,2 C 6,7 C 89 % 1010,6 hPa 0,2 l/m 0 min 2 min 0 W/m 9,7 km/h (2 Bft) 93,62 %
03.02.2020 19:56 9,2 C 6,7 C 6,7 C 89 % 1010,5 hPa 0,0 l/m 0 min 2 min 0 W/m 12,9 km/h (3 Bft) 93,62 %
03.02.2020 19:58 9,2 C 6,7 C 6,7 C 89 % 1010,4 hPa 0,0 l/m 0 min 2 min 0 W/m 6,4 km/h (2 Bft) 93,62 %
03.02.2020 20:00 9,2 C 6,7 C 6,7 C 89 % 1010,3 hPa 0,0 l/m 0 min 2 min 0 W/m 12,9 km/h (3 Bft) 93,62 %
03.02.2020 20:02 9,1 C 6,7 C 6,7 C 89 % 1010,3 hPa 0,2 l/m 0 min 2 min 0 W/m 12,9 km/h (3 Bft) 95,74 %
03.02.2020 20:04 9,1 C 6,7 C 6,7 C 90 % 1010,2 hPa 0,0 l/m 0 min 2 min 0 W/m 12,9 km/h (3 Bft) 95,65 %
03.02.2020 20:06 9,1 C 6,7 C 6,7 C 90 % 1010,1 hPa 0,0 l/m 0 min 2 min 0 W/m 12,9 km/h (3 Bft) 97,87 %
03.02.2020 20:08 9,0 C 6,7 C 6,7 C 90 % 1010,0 hPa 0,0 l/m 0 min 2 min 0 W/m 16,1 km/h (3 Bft) 97,87 %
03.02.2020 20:10 9,0 C 6,7 C 6,7 C 90 % 1010,0 hPa 0,0 l/m 0 min 2 min 0 W/m 9,7 km/h (2 Bft) 95,74 %
03.02.2020 20:12 8,9 C 6,7 C 6,7 C 90 % 1009,9 hPa 0,2 l/m 0 min 2 min 0 W/m 12,9 km/h (3 Bft) 95,74 %
03.02.2020 20:14 8,9 C 6,7 C 6,7 C 90 % 1009,9 hPa 0,0 l/m 0 min 2 min 0 W/m 6,4 km/h (2 Bft) 97,83 %
03.02.2020 20:16 8,9 C 6,7 C 6,7 C 91 % 1009,8 hPa 0,0 l/m 0 min 2 min 0 W/m 6,4 km/h (2 Bft) 97,87 %
03.02.2020 20:18 8,8 C 6,7 C 6,7 C 91 % 1009,7 hPa 0,0 l/m 0 min 2 min 0 W/m 3,2 km/h (1 Bft) 96,23 %
03.02.2020 20:20 8,8 C 6,7 C 6,7 C 91 % 1009,9 hPa 0,0 l/m 0 min 2 min 0 W/m 6,4 km/h (2 Bft) 95,74 %
03.02.2020 20:22 8,8 C 6,7 C 6,1 C 91 % 1009,8 hPa 0,2 l/m 0 min 2 min 0 W/m 9,7 km/h (2 Bft) 95,74 %
03.02.2020 20:24 8,8 C 6,7 C 6,1 C 91 % 1009,7 hPa 0,0 l/m 0 min 2 min 0 W/m 6,4 km/h (2 Bft) 95,74 %
03.02.2020 20:26 8,7 C 6,7 C 6,1 C 91 % 1009,5 hPa 0,0 l/m 0 min 2 min 0 W/m 6,4 km/h (2 Bft) 93,48 %
03.02.2020 20:28 8,7 C 6,7 C 6,1 C 91 % 1009,5 hPa 0,0 l/m 0 min 2 min 0 W/m 3,2 km/h (1 Bft) 95,74 %
03.02.2020 20:30 8,7 C 6,7 C 6,1 C 92 % 1009,5 hPa 0,0 l/m 0 min 2 min 0 W/m 9,7 km/h (2 Bft) 95,74 %
03.02.2020 20:32 8,7 C 6,7 C 6,1 C 92 % 1009,4 hPa 0,2 l/m 0 min 2 min 0 W/m 6,4 km/h (2 Bft) 93,62 %
03.02.2020 20:34 8,6 C 6,7 C 6,1 C 92 % 1009,4 hPa 0,0 l/m 0 min 2 min 0 W/m 3,2 km/h (1 Bft) 95,74 %
03.02.2020 20:36 8,6 C 6,7 C 6,1 C 92 % 1009,3 hPa 0,0 l/m 0 min 2 min 0 W/m 6,4 km/h (2 Bft) 95,74 %
03.02.2020 20:38 8,6 C 6,7 C 6,1 C 92 % 1009,3 hPa 0,2 l/m 0 min 2 min 0 W/m 3,2 km/h (1 Bft) 95,65 %
03.02.2020 20:40 8,6 C 6,7 C 6,1 C 92 % 1009,2 hPa 0,0 l/m 0 min 2 min 0 W/m 3,2 km/h (1 Bft) 95,74 %
03.02.2020 20:42 8,5 C 6,7 C 6,1 C 92 % 1009,1 hPa 0,0 l/m 0 min 2 min 0 W/m 6,4 km/h (2 Bft) 93,62 %
03.02.2020 20:44 8,5 C 6,7 C 6,1 C 92 % 1009,1 hPa 0,0 l/m 0 min 2 min 0 W/m 3,2 km/h (1 Bft) 95,74 %
03.02.2020 20:46 8,5 C 6,7 C 6,1 C 93 % 1009,1 hPa 0,0 l/m 0 min 2 min 0 W/m 3,2 km/h (1 Bft) 95,74 %
03.02.2020 20:48 8,4 C 6,7 C 6,1 C 93 % 1009,1 hPa 0,0 l/m 0 min 2 min 0 W/m 0,0 km/h (0 Bft) 97,83 %
03.02.2020 20:50 8,4 C 6,7 C 6,1 C 93 % 1008,9 hPa 0,0 l/m 0 min 2 min 0 W/m 0,0 km/h (0 Bft) 97,87 %
03.02.2020 20:52 8,4 C 6,7 C 6,1 C 93 % 1008,8 hPa 0,0 l/m 0 min 2 min 0 W/m 0,0 km/h (0 Bft) 95,74 %
03.02.2020 20:54 8,4 C 6,7 C 6,1 C 93 % 1008,7 hPa 0,2 l/m 0 min 2 min 0 W/m 0,0 km/h (0 Bft) 97,87 %
03.02.2020 20:56 8,3 C 6,7 C 6,1 C 93 % 1008,7 hPa 0,0 l/m 0 min 2 min 0 W/m 0,0 km/h (0 Bft) 97,87 %
03.02.2020 20:58 8,3 C 6,7 C 6,1 C 93 % 1008,6 hPa 0,0 l/m 0 min 2 min 0 W/m 0,0 km/h (0 Bft) 97,87 %
03.02.2020 21:00 8,3 C 6,7 C 6,1 C 93 % 1008,6 hPa 0,0 l/m 0 min 2 min 0 W/m 0,0 km/h (0 Bft) 97,83 %
03.02.2020 21:02 8,3 C 6,7 C 6,1 C 93 % 1008,5 hPa 0,0 l/m 0 min 2 min 0 W/m 0,0 km/h (0 Bft) 95,74 %
03.02.2020 21:04 8,3 C 6,1 C 6,1 C 94 % 1008,5 hPa 0,2 l/m 0 min 2 min 0 W/m 12,9 km/h (3 Bft) 97,87 %
03.02.2020 21:06 8,2 C 6,1 C 6,1 C 94 % 1008,4 hPa 0,0 l/m 0 min 2 min 0 W/m 6,4 km/h (2 Bft) 97,87 %
03.02.2020 21:08 8,1 C 6,1 C 6,1 C 94 % 1008,3 hPa 0,0 l/m 0 min 2 min 0 W/m 9,7 km/h (2 Bft) 100,00 %
03.02.2020 21:10 8,1 C 6,1 C 6,1 C 93 % 1008,3 hPa 0,0 l/m 0 min 2 min 0 W/m 6,4 km/h (2 Bft) 97,87 %
03.02.2020 21:12 8,1 C 6,1 C 6,1 C 94 % 1008,2 hPa 0,0 l/m 0 min 2 min 0 W/m 9,7 km/h (2 Bft) 100,00 %
03.02.2020 21:14 8,1 C 6,1 C 6,1 C 94 % 1008,2 hPa 0,0 l/m 0 min 2 min 0 W/m 3,2 km/h (1 Bft) 100,00 %
03.02.2020 21:16 8,0 C 6,1 C 6,1 C 94 % 1008,1 hPa 0,0 l/m 0 min 2 min 0 W/m 3,2 km/h (1 Bft) 100,00 %
03.02.2020 21:18 7,9 C 6,1 C 6,1 C 94 % 1008,1 hPa 0,0 l/m 0 min 2 min 0 W/m 0,0 km/h (0 Bft) 97,87 %
03.02.2020 21:20 7,9 C 6,1 C 6,1 C 94 % 1008,1 hPa 0,0 l/m 0 min 2 min 0 W/m 0,0 km/h (0 Bft) 100,00 %
03.02.2020 21:22 7,9 C 6,1 C 6,1 C 94 % 1008,1 hPa 0,0 l/m 0 min 2 min 0 W/m 3,2 km/h (1 Bft) 100,00 %
03.02.2020 21:24 7,9 C 6,1 C 6,1 C 94 % 1008,0 hPa 0,0 l/m 0 min 2 min 0 W/m 3,2 km/h (1 Bft) 100,00 %
03.02.2020 21:26 7,9 C 6,1 C 6,1 C 94 % 1008,0 hPa 0,0 l/m 0 min 2 min 0 W/m 0,0 km/h (0 Bft) 100,00 %
03.02.2020 21:28 7,9 C 6,1 C 6,1 C 94 % 1008,0 hPa 0,0 l/m 0 min 2 min 0 W/m 0,0 km/h (0 Bft) 100,00 %
03.02.2020 21:30 7,8 C 6,1 C 6,1 C 94 % 1007,9 hPa 0,0 l/m 0 min 2 min 0 W/m 0,0 km/h (0 Bft) 100,00 %
03.02.2020 21:32 7,8 C 6,1 C 6,1 C 94 % 1008,0 hPa 0,0 l/m 0 min 2 min 0 W/m 0,0 km/h (0 Bft) 100,00 %
03.02.2020 21:34 7,8 C 6,1 C 6,1 C 94 % 1007,9 hPa 0,2 l/m 0 min 2 min 0 W/m 0,0 km/h (0 Bft) 100,00 %
03.02.2020 21:36 7,8 C 6,1 C 6,1 C 94 % 1007,9 hPa 0,0 l/m 0 min 2 min 0 W/m 3,2 km/h (1 Bft) 100,00 %
03.02.2020 21:38 7,8 C 6,1 C 6,1 C 94 % 1007,9 hPa 0,0 l/m 0 min 2 min 0 W/m 3,2 km/h (1 Bft) 97,87 %
03.02.2020 21:40 7,8 C 6,1 C 6,1 C 94 % 1007,9 hPa 0,0 l/m 0 min 2 min 0 W/m 0,0 km/h (0 Bft) 97,87 %
03.02.2020 21:42 7,8 C 6,1 C 6,1 C 95 % 1007,9 hPa 0,0 l/m 0 min 2 min 0 W/m 0,0 km/h (0 Bft) 53,49 %
03.02.2020 21:44 7,8 C 6,1 C 6,1 C 95 % 1007,8 hPa 0,2 l/m 0 min 2 min 0 W/m 0,0 km/h (0 Bft) 97,87 %
03.02.2020 21:46 7,8 C 6,1 C 6,1 C 95 % 1007,8 hPa 0,0 l/m 0 min 2 min 0 W/m 0,0 km/h (0 Bft) 97,87 %
03.02.2020 21:48 7,7 C 6,1 C 6,1 C 95 % 1007,8 hPa 0,0 l/m 0 min 2 min 0 W/m 0,0 km/h (0 Bft) 100,00 %
03.02.2020 21:50 7,7 C 6,1 C 6,1 C 95 % 1007,7 hPa 0,0 l/m 0 min 2 min 0 W/m 0,0 km/h (0 Bft) 100,00 %
03.02.2020 21:52 7,7 C 6,1 C 6,1 C 95 % 1007,7 hPa 0,2 l/m 0 min 2 min 0 W/m 0,0 km/h (0 Bft) 100,00 %
03.02.2020 21:54 7,7 C 6,1 C 6,1 C 95 % 1007,7 hPa 0,0 l/m 0 min 2 min 0 W/m 0,0 km/h (0 Bft) 97,87 %
03.02.2020 21:56 7,7 C 6,1 C 6,1 C 95 % 1007,7 hPa 0,2 l/m 0 min 2 min 0 W/m 3,2 km/h (1 Bft) 100,00 %
03.02.2020 21:58 7,7 C 6,1 C 6,1 C 95 % 1007,7 hPa 0,0 l/m 0 min 2 min 0 W/m 3,2 km/h (1 Bft) 97,87 %
03.02.2020 22:00 7,6 C 6,1 C 5,6 C 95 % 1007,7 hPa 0,0 l/m 0 min 2 min 0 W/m 3,2 km/h (1 Bft) 97,83 %
03.02.2020 22:02 7,6 C 6,1 C 5,6 C 95 % 1007,8 hPa 0,0 l/m 0 min 2 min 0 W/m 3,2 km/h (1 Bft) 95,74 %
03.02.2020 22:04 7,6 C 6,1 C 5,6 C 95 % 1007,7 hPa 0,2 l/m 0 min 2 min 0 W/m 3,2 km/h (1 Bft) 97,87 %
03.02.2020 22:06 7,6 C 6,1 C 5,6 C 95 % 1007,7 hPa 0,0 l/m 0 min 2 min 0 W/m 3,2 km/h (1 Bft) 95,74 %
03.02.2020 22:08 7,6 C 6,1 C 5,6 C 95 % 1007,6 hPa 0,2 l/m 0 min 2 min 0 W/m 6,4 km/h (2 Bft) 97,87 %
03.02.2020 22:10 7,5 C 6,1 C 5,6 C 95 % 1007,6 hPa 0,0 l/m 0 min 2 min 0 W/m 6,4 km/h (2 Bft) 97,83 %
03.02.2020 22:12 7,5 C 6,1 C 5,6 C 95 % 1007,4 hPa 0,0 l/m 0 min 2 min 0 W/m 0,0 km/h (0 Bft) 95,74 %
03.02.2020 22:14 7,4 C 6,1 C 5,6 C 95 % 1007,3 hPa 0,0 l/m 0 min 2 min 0 W/m 0,0 km/h (0 Bft) 97,87 %
03.02.2020 22:16 7,4 C 6,1 C 5,6 C 95 % 1007,3 hPa 0,0 l/m 0 min 2 min 0 W/m 0,0 km/h (0 Bft) 97,87 %
03.02.2020 22:18 7,4 C 6,1 C 5,6 C 95 % 1007,3 hPa 0,2 l/m 0 min 2 min 0 W/m 0,0 km/h (0 Bft) 97,87 %
03.02.2020 22:20 7,4 C 6,1 C 5,6 C 95 % 1007,2 hPa 0,0 l/m 0 min 2 min 0 W/m 0,0 km/h (0 Bft) 95,74 %
03.02.2020 22:22 7,4 C 6,1 C 5,6 C 95 % 1007,3 hPa 0,0 l/m 0 min 2 min 0 W/m 0,0 km/h (0 Bft) 97,83 %
03.02.2020 22:24 7,3 C 6,1 C 5,6 C 95 % 1007,2 hPa 0,2 l/m 0 min 2 min 0 W/m 0,0 km/h (0 Bft) 97,87 %
03.02.2020 22:26 7,3 C 6,1 C 5,6 C 95 % 1007,1 hPa 0,0 l/m 0 min 2 min 0 W/m 0,0 km/h (0 Bft) 97,87 %
03.02.2020 22:28 7,3 C 6,1 C 5,6 C 95 % 1007,1 hPa 0,0 l/m 0 min 2 min 0 W/m 9,7 km/h (2 Bft) 97,87 %
03.02.2020 22:30 7,3 C 6,1 C 5,6 C 96 % 1007,1 hPa 0,0 l/m 0 min 2 min 0 W/m 0,0 km/h (0 Bft) 97,87 %
03.02.2020 22:32 7,3 C 6,1 C 5,6 C 96 % 1007,1 hPa 0,0 l/m 0 min 2 min 0 W/m 6,4 km/h (2 Bft) 95,74 %
03.02.2020 22:34 7,3 C 6,1 C 5,6 C 96 % 1007,1 hPa 0,2 l/m 0 min 2 min 0 W/m 6,4 km/h (2 Bft) 95,65 %
03.02.2020 22:36 7,3 C 6,1 C 5,6 C 96 % 1007,1 hPa 0,0 l/m 0 min 2 min 0 W/m 0,0 km/h (0 Bft) 97,87 %
03.02.2020 22:38 7,2 C 6,1 C 5,6 C 96 % 1007,0 hPa 0,2 l/m 0 min 2 min 0 W/m 0,0 km/h (0 Bft) 95,74 %
03.02.2020 22:40 7,2 C 6,1 C 5,6 C 96 % 1006,9 hPa 0,0 l/m 0 min 2 min 0 W/m 0,0 km/h (0 Bft) 100,00 %
03.02.2020 22:42 7,2 C 6,1 C 5,6 C 96 % 1007,0 hPa 0,0 l/m 0 min 2 min 0 W/m 6,4 km/h (2 Bft) 100,00 %
03.02.2020 22:44 7,2 C 6,1 C 5,6 C 96 % 1006,9 hPa 0,2 l/m 0 min 2 min 0 W/m 0,0 km/h (0 Bft) 100,00 %
03.02.2020 22:46 7,2 C 6,1 C 5,6 C 96 % 1007,0 hPa 0,0 l/m 0 min 2 min 0 W/m 3,2 km/h (1 Bft) 100,00 %
03.02.2020 22:48 7,2 C 6,1 C 5,6 C 96 % 1006,9 hPa 0,2 l/m 0 min 2 min 0 W/m 0,0 km/h (0 Bft) 100,00 %
03.02.2020 22:50 7,2 C 6,1 C 5,6 C 96 % 1006,8 hPa 0,0 l/m 0 min 2 min 0 W/m 0,0 km/h (0 Bft) 100,00 %
03.02.2020 22:52 7,2 C 6,1 C 5,6 C 96 % 1006,9 hPa 0,0 l/m 0 min 2 min 0 W/m 0,0 km/h (0 Bft) 97,87 %
03.02.2020 22:54 7,2 C 6,1 C 5,6 C 96 % 1006,8 hPa 0,0 l/m 0 min 2 min 0 W/m 0,0 km/h (0 Bft) 100,00 %
03.02.2020 22:56 7,2 C 6,1 C 5,6 C 96 % 1006,8 hPa 0,0 l/m 0 min 2 min 0 W/m 3,2 km/h (1 Bft) 100,00 %
03.02.2020 22:58 7,2 C 6,1 C 5,6 C 96 % 1006,7 hPa 0,0 l/m 0 min 2 min 0 W/m 6,4 km/h (2 Bft) 100,00 %
03.02.2020 23:00 7,1 C 6,1 C 5,6 C 96 % 1006,8 hPa 0,2 l/m 0 min 2 min 0 W/m 3,2 km/h (1 Bft) 100,00 %
03.02.2020 23:02 7,1 C 6,1 C 5,6 C 96 % 1006,8 hPa 0,0 l/m 0 min 2 min 0 W/m 3,2 km/h (1 Bft) 95,74 %
03.02.2020 23:04 7,1 C 6,1 C 5,6 C 96 % 1006,7 hPa 0,2 l/m 0 min 2 min 0 W/m 6,4 km/h (2 Bft) 100,00 %
03.02.2020 23:06 7,1 C 6,1 C 5,6 C 96 % 1006,7 hPa 0,0 l/m 0 min 2 min 0 W/m 6,4 km/h (2 Bft) 97,87 %
03.02.2020 23:08 7,1 C 6,1 C 5,6 C 96 % 1006,8 hPa 0,0 l/m 0 min 2 min 0 W/m 6,4 km/h (2 Bft) 100,00 %
03.02.2020 23:10 7,1 C 6,1 C 5,6 C 96 % 1006,8 hPa 0,2 l/m 0 min 2 min 0 W/m 3,2 km/h (1 Bft) 100,00 %
03.02.2020 23:12 7,1 C 5,6 C 5,6 C 96 % 1006,8 hPa 0,0 l/m 0 min 2 min 0 W/m 9,7 km/h (2 Bft) 93,62 %
03.02.2020 23:14 7,1 C 5,6 C 5,6 C 97 % 1006,9 hPa 0,2 l/m 0 min 2 min 0 W/m 16,1 km/h (3 Bft) 97,87 %
03.02.2020 23:16 7,0 C 5,6 C 5,0 C 97 % 1006,9 hPa 0,0 l/m 0 min 2 min 0 W/m 25,7 km/h (4 Bft) 97,87 %
03.02.2020 23:18 6,9 C 5,0 C 5,0 C 96 % 1007,0 hPa 0,2 l/m 0 min 2 min 0 W/m 41,8 km/h (6 Bft) 97,87 %
03.02.2020 23:20 6,7 C 5,0 C 4,4 C 96 % 1007,0 hPa 0,0 l/m 0 min 2 min 0 W/m 38,6 km/h (5 Bft) 95,65 %
03.02.2020 23:22 6,6 C 4,4 C 4,4 C 96 % 1007,0 hPa 0,2 l/m 0 min 2 min 0 W/m 25,7 km/h (4 Bft) 95,74 %
03.02.2020 23:24 6,4 C 4,4 C 4,4 C 96 % 1007,1 hPa 0,0 l/m 0 min 2 min 0 W/m 41,8 km/h (6 Bft) 100,00 %
03.02.2020 23:26 6,2 C 4,4 C 4,4 C 96 % 1007,1 hPa 0,0 l/m 0 min 2 min 0 W/m 25,7 km/h (4 Bft) 97,87 %
03.02.2020 23:28 6,1 C 4,4 C 4,4 C 96 % 1007,0 hPa 0,2 l/m 0 min 2 min 0 W/m 32,2 km/h (5 Bft) 97,87 %
03.02.2020 23:30 6,0 C 4,4 C 4,4 C 96 % 1007,1 hPa 0,0 l/m 0 min 2 min 0 W/m 22,5 km/h (4 Bft) 93,62 %
03.02.2020 23:32 5,9 C 4,4 C 4,4 C 96 % 1007,0 hPa 0,2 l/m 0 min 2 min 0 W/m 16,1 km/h (3 Bft) 95,65 %
03.02.2020 23:34 5,9 C 4,4 C 4,4 C 96 % 1007,0 hPa 0,0 l/m 0 min 2 min 0 W/m 16,1 km/h (3 Bft) 95,74 %
03.02.2020 23:36 5,8 C 4,4 C 4,4 C 96 % 1007,1 hPa 0,0 l/m 0 min 2 min 0 W/m 19,3 km/h (3 Bft) 97,87 %
03.02.2020 23:38 5,8 C 4,4 C 4,4 C 96 % 1007,1 hPa 0,0 l/m 0 min 2 min 0 W/m 16,1 km/h (3 Bft) 95,74 %
03.02.2020 23:40 5,8 C 4,4 C 4,4 C 96 % 1007,0 hPa 0,2 l/m 0 min 2 min 0 W/m 16,1 km/h (3 Bft) 95,74 %
03.02.2020 23:42 5,8 C 4,4 C 4,4 C 96 % 1007,0 hPa 0,0 l/m 0 min 2 min 0 W/m 9,7 km/h (2 Bft) 93,62 %
03.02.2020 23:44 5,7 C 4,4 C 4,4 C 96 % 1007,0 hPa 0,0 l/m 0 min 2 min 0 W/m 16,1 km/h (3 Bft) 95,65 %
03.02.2020 23:46 5,7 C 4,4 C 4,4 C 96 % 1006,9 hPa 0,2 l/m 0 min 2 min 0 W/m 0,0 km/h (0 Bft) 95,74 %
03.02.2020 23:48 5,7 C 4,4 C 4,4 C 96 % 1006,9 hPa 0,0 l/m 0 min 2 min 0 W/m 9,7 km/h (2 Bft) 93,62 %
03.02.2020 23:50 5,7 C 4,4 C 4,4 C 96 % 1006,8 hPa 0,0 l/m 0 min 2 min 0 W/m 9,7 km/h (2 Bft) 93,62 %
03.02.2020 23:52 5,6 C 4,4 C 3,9 C 96 % 1006,8 hPa 0,0 l/m 0 min 2 min 0 W/m 12,9 km/h (3 Bft) 95,74 %
03.02.2020 23:54 5,6 C 4,4 C 3,9 C 96 % 1006,7 hPa 0,2 l/m 0 min 2 min 0 W/m 6,4 km/h (2 Bft) 93,62 %
03.02.2020 23:56 5,6 C 4,4 C 3,9 C 96 % 1006,7 hPa 0,0 l/m 0 min 2 min 0 W/m 9,7 km/h (2 Bft) 95,65 %
03.02.2020 23:58 5,6 C 4,4 C 3,9 C 96 % 1006,8 hPa 0,0 l/m 0 min 2 min 0 W/m 0,0 km/h (0 Bft) 97,87 %
_ Min-Zeit 23:52 23:22 23:52 11:24 22:58 - - - - 16:52 21:42
Minimum _ 5,6 C 4,4 C 3,9 C 83 % 1006,7 hPa - - - - 0,0 km/h (0 Bft) 53,49 %
_ Max-Zeit 11:42 11:40 13:20 23:14 11:38 14:38 10:02 09:24 11:40 01:50 00:58
Maximum _ 11,4 C 14,4 C 11,1 C 97 % 1014,2 hPa 0,2 l/m 2 min 2 min 454 W/m 41,8 km/h
SO (6 Bft)
100,00 %
Durchschnitt _ 9,8 C 9,0 C 8,4 C 89 % 1011,5 hPa #6,4 l/m #1:08 h #6:22 h 86 W/m 15,0 km/h (3 Bft) 97,54 %
© 2020 W. Hausmann